GFSNE_con_3kmhel_000.txt.gz
Helicity
356 356 372 357 334 314 317 305 289 225 211 148 131 113 154 156 167 154 163 226 207 242 251 277 307 298 229 215 223 228 216 183 155 144 130 113 166 132
356 339 357 362 351 333 331 321 317 294 254 225 204 201 233 218 211 185 210 202 267 258 273 301 314 290 239 224 250 214 192 167 141 124 108 135 135 103
313 340 336 342 359 345 348 346 345 352 309 247 239 283 293 264 265 233 240 238 259 282 306 307 312 260 223 249 227 194 156 129 119 101 92 84 87 76
298 314 338 368 334 317 344 318 333 321 309 239 225 307 266 295 252 257 259 264 256 293 264 277 319 215 197 212 162 135 116 102 73 63 66 56 51 58
271 298 300 328 349 337 342 313 310 323 296 279 254 341 320 316 271 242 253 241 255 287 239 268 260 163 162 147 121 102 89 64 53 57 58 55 41 33
239 256 288 328 339 346 361 306 313 328 315 288 303 329 317 327 279 243 267 241 236 238 237 235 248 114 121 123 91 92 79 60 66 64 52 48 43 29
219 239 279 311 310 356 398 295 306 313 347 339 322 311 336 362 278 285 285 303 242 236 216 228 185 154 163 113 87 91 66 65 65 51 45 40 39 26
146 216 239 250 297 362 384 276 255 314 330 367 320 295 306 308 298 323 296 312 309 226 188 197 177 165 156 115 106 68 55 56 55 41 35 34 25 14
173 173 191 253 261 312 318 274 241 187 239 360 339 294 336 319 336 350 324 310 275 255 199 161 198 171 149 110 85 60 42 56 45 36 38 26 20 17
144 150 195 197 257 308 363 304 333 429 401 322 312 340 335 346 354 342 289 277 266 186 219 179 184 153 143 113 93 64 64 45 33 44 35 22 31 34
123 160 180 191 208 317 354 481 519 502 474 474 396 421 395 391 386 374 346 290 245 203 208 170 161 140 118 122 116 100 52 35 48 45 39 37 41 35
119 113 124 145 218 323 353 443 470 480 580 592 540 507 442 385 354 313 282 298 255 238 216 177 163 161 132 115 110 79 75 66 59 48 39 51 43 67
101 69 104 144 242 327 346 381 450 555 482 476 482 449 398 334 314 265 234 248 235 199 249 187 170 131 125 108 78 64 72 77 76 76 63 62 64 62
95 109 142 174 219 279 371 375 429 497 574 519 518 433 370 294 284 226 199 211 167 161 204 178 140 118 117 92 73 68 55 67 67 78 86 58 42 49
75 72 186 198 184 251 387 423 468 491 584 522 444 422 242 331 254 220 201 195 132 125 121 111 93 89 91 102 106 82 66 73 60 90 70 52 54 49
51 78 149 203 258 367 456 472 449 454 459 531 478 362 272 327 226 205 207 158 129 138 113 89 83 82 75 86 87 85 81 124 107 87 68 54 57 58
41 127 221 395 436 440 543 482 468 473 435 534 497 350 269 297 245 221 173 138 129 136 114 91 74 56 75 84 101 105 97 108 95 74 57 66 59 75
53 235 277 319 347 405 391 422 397 465 475 541 416 311 305 256 241 181 144 120 122 115 88 80 59 51 72 105 101 98 91 87 73 65 62 75 86 34
76 176 269 285 334 337 367 411 428 437 492 470 412 337 277 253 194 155 125 118 111 91 74 67 47 48 56 76 89 131 98 75 80 93 77 75 84 84
102 136 243 273 304 341 388 465 506 532 509 463 334 291 256 199 165 135 109 112 95 73 60 43 48 60 77 90 114 133 106 135 113 116 102 96 101 75
48 91 169 236 248 271 349 390 507 493 405 312 288 268 201 166 135 119 112 103 73 57 35 35 60 66 81 99 113 131 108 113 142 142 128 119 94 54
-14 39 94 148 189 195 285 342 339 298 238 304 261 201 160 129 125 108 100 80 52 42 28 40 57 61 76 89 88 102 114 90 62 94 102 96 136 87
2 31 102 149 194 212 224 248 289 248 274 249 210 156 132 120 101 93 83 51 42 24 29 40 48 61 64 86 87 109 97 98 93 71 91 55 84 105

GFSNE_con_3kmhel_003.txt.gz
Helicity
384 360 406 405 434 451 469 493 454 330 273 234 227 224 230 278 265 217 205 212 215 213 232 212 215 201 176 199 238 233 183 179 174 155 145 120 126 136
391 370 386 397 389 439 443 447 436 398 312 291 260 245 352 390 295 232 241 288 232 226 211 191 206 195 191 228 250 218 197 191 178 145 115 123 117 86
286 345 352 376 381 385 407 455 461 478 408 268 325 391 394 427 357 284 301 249 228 195 204 198 221 207 210 219 238 211 203 172 143 113 111 103 79 43
243 283 328 367 349 327 352 390 443 471 435 295 264 309 448 407 341 272 262 241 283 261 253 214 217 207 198 209 224 183 168 135 109 107 94 77 39 47
190 211 246 277 324 364 321 370 430 471 432 347 329 350 392 463 403 307 296 331 308 320 290 230 203 198 183 185 167 157 141 108 97 92 80 52 57 50
172 171 171 219 241 282 308 311 290 403 433 434 363 453 423 448 382 366 337 337 310 267 274 229 220 178 136 167 142 141 113 94 91 81 68 66 63 69
99 134 165 134 191 253 325 315 349 378 425 434 393 485 439 371 388 375 343 324 290 313 295 257 228 209 194 187 137 111 99 95 81 71 66 58 73 66
100 100 142 156 162 219 254 271 289 404 411 453 453 395 466 280 358 358 370 406 337 358 310 231 210 245 218 205 132 121 104 79 73 66 56 64 69 66
95 90 122 162 174 225 217 239 248 331 354 399 429 377 436 292 365 366 384 366 337 359 292 221 189 242 217 167 113 90 83 78 74 46 50 57 63 53
108 109 95 107 106 152 209 220 224 284 369 429 342 249 353 348 326 349 300 372 410 343 275 248 212 245 187 184 92 74 107 93 64 38 51 53 48 44
39 116 89 99 117 83 168 231 232 349 521 583 538 404 352 384 431 457 431 391 290 312 235 230 232 241 183 165 137 123 122 84 43 52 61 57 49 60
30 18 55 83 80 90 112 243 388 419 543 599 611 551 597 458 399 416 352 276 337 314 269 198 275 234 193 153 151 144 135 68 64 65 66 74 81 135
60 -45 -3 89 65 106 115 211 357 587 516 609 639 618 602 611 329 402 282 234 314 326 216 291 256 208 196 161 130 130 101 103 119 109 80 76 85 100
45 28 -1 -5 53 45 182 211 378 601 590 665 582 487 475 361 353 332 339 232 261 315 254 286 212 213 189 149 134 102 92 80 102 124 127 88 55 63
39 46 40 29 28 32 81 362 486 608 598 538 462 432 334 406 336 378 267 224 213 230 242 189 187 145 134 143 107 120 82 113 96 98 108 94 91 95
44 45 21 -7 25 32 205 349 537 512 450 495 482 483 416 471 347 290 253 199 187 213 158 167 139 121 119 108 123 115 97 130 119 100 96 77 79 85
31 -3 30 45 153 186 317 472 457 388 459 493 602 531 395 434 300 210 217 147 187 200 157 136 103 95 105 103 115 155 126 125 124 96 70 68 83 80
-39 -15 30 105 137 212 397 444 403 343 369 403 496 489 401 415 276 178 143 148 190 166 133 120 119 73 74 94 167 151 122 124 100 86 85 82 84 91
-62 -68 -11 91 154 247 313 341 314 355 370 379 423 507 441 310 211 139 131 170 158 125 115 113 100 74 80 121 115 135 156 133 105 100 97 97 87 106
-71 -49 -45 11 128 205 257 269 245 300 333 489 443 362 331 217 115 116 140 141 118 118 90 89 77 82 127 125 133 191 115 136 122 123 96 72 74 67
-68 -54 -77 -14 52 174 249 284 346 360 382 474 359 266 198 128 106 128 131 114 110 89 69 47 72 80 105 103 137 139 111 81 82 123 101 98 101 119
-38 -34 -54 -18 29 139 221 256 275 280 327 277 187 187 126 88 120 127 103 96 72 69 38 40 75 111 112 137 115 102 123 135 124 84 55 85 147 110
-5 -18 -37 -30 2 104 153 146 168 194 214 249 190 149 91 99 114 100 88 89 67 37 33 40 60 79 121 125 84 124 121 119 114 85 131 72 54 62

GFSNE_con_3kmhel_006.txt.gz
Helicity
264 292 337 334 351 410 405 404 387 309 332 329 388 456 436 324 290 294 317 275 225 189 197 238 258 211 182 149 156 158 135 154 198 193 158 154 156 132
255 264 289 297 311 378 422 378 382 386 322 331 320 403 445 446 355 374 324 318 233 205 238 279 240 193 157 141 148 146 152 192 213 202 172 174 154 143
162 193 212 228 278 311 351 349 354 363 380 311 267 291 401 471 509 390 346 349 370 267 258 276 226 181 150 140 150 149 177 223 230 200 189 166 147 146
126 129 135 168 188 253 315 355 372 353 313 277 232 273 368 431 489 450 390 327 417 296 247 225 179 125 126 152 157 168 205 234 221 184 172 159 139 110
107 125 118 117 141 181 269 331 397 371 345 266 236 268 422 451 528 446 359 325 331 294 241 207 154 133 164 158 162 174 182 220 177 155 147 134 110 95
105 121 119 113 106 111 145 198 311 330 328 393 261 332 566 560 511 509 441 385 357 338 281 236 204 177 174 167 159 152 186 185 150 150 126 109 89 79
77 82 117 122 109 94 120 124 164 289 301 349 325 428 587 580 527 524 390 467 307 356 337 323 288 242 214 169 158 156 182 147 152 130 100 79 93 57
38 67 93 95 77 60 68 78 108 164 144 249 407 432 514 469 466 561 473 529 425 309 342 301 291 233 223 230 148 170 146 147 136 89 72 71 70 55
44 56 71 98 103 82 33 52 78 129 173 173 171 362 461 477 430 501 407 408 376 320 372 272 260 175 218 199 120 136 116 130 102 84 67 60 57 51
50 41 61 71 81 77 89 56 84 89 173 209 200 228 282 432 444 434 384 486 481 387 259 255 246 225 222 171 123 106 124 105 104 83 70 56 53 49
60 59 63 64 41 68 90 111 70 110 193 252 171 226 332 488 591 598 452 461 407 325 287 254 195 259 220 175 177 122 120 125 107 75 55 57 67 67
55 39 40 55 64 50 76 76 -7 140 260 304 345 332 462 365 400 527 573 618 661 303 266 249 223 236 184 195 194 192 169 98 69 57 66 67 74 140
57 45 39 61 62 72 54 -21 16 104 184 401 471 492 626 761 649 594 515 377 444 284 159 241 233 215 200 217 176 139 139 104 108 102 78 56 67 98
63 65 58 59 73 63 40 9 18 9 293 457 568 589 658 635 556 480 435 329 291 232 212 199 195 214 219 181 147 144 120 87 100 99 130 100 61 47
56 54 59 53 61 58 40 29 15 170 355 418 487 627 669 491 543 408 404 386 313 233 180 179 217 201 176 147 122 107 87 107 101 105 104 88 102 84
29 50 -1 -18 -32 14 45 66 122 279 332 341 458 548 527 371 393 305 348 287 184 152 139 173 161 147 129 118 100 96 121 108 110 78 81 61 83 84
13 -30 -73 -72 -82 -40 -2 104 172 299 267 279 374 487 515 304 450 286 261 161 125 135 141 121 91 100 103 112 85 116 103 107 111 96 93 62 63 75
-25 -60 -72 -78 -58 -52 -55 27 123 241 259 233 259 334 402 293 381 266 207 98 124 129 113 99 118 104 68 65 78 126 136 118 118 96 96 70 49 56
-29 -58 -60 -55 -50 -62 -62 -5 110 191 207 152 235 317 367 232 173 171 113 95 118 88 85 110 99 92 81 90 90 69 135 132 117 105 112 128 85 91
-16 -57 -28 -24 -37 -36 -47 22 130 225 172 220 261 272 195 153 78 91 71 87 81 56 83 66 69 83 104 93 112 160 76 97 104 104 109 112 114 82
4 -26 -9 -21 -19 -35 -38 68 141 160 177 213 182 147 139 108 64 59 61 52 36 50 48 35 52 99 106 120 118 118 141 84 84 111 99 101 98 95
19 -12 10 -1 -22 -33 -27 37 97 161 177 136 83 95 99 76 45 50 41 25 21 29 33 37 46 86 107 113 142 146 137 118 101 50 43 62 109 105
29 25 44 23 -19 -41 -31 14 71 134 131 130 71 67 75 52 37 34 5 4 23 31 34 34 56 84 99 141 92 133 102 86 71 44 80 20 -2 24

GFSNE_con_3kmhel_009.txt.gz
Helicity
115 129 160 190 226 253 263 295 304 326 284 227 207 262 301 301 302 307 300 228 173 155 185 190 171 204 297 259 199 181 164 175 167 153 133 116 152 177
130 128 128 142 152 190 226 271 327 335 344 285 262 309 363 326 256 258 311 298 254 203 211 223 185 271 346 256 222 201 189 182 153 133 109 137 180 189
190 183 181 155 144 145 152 186 252 298 339 310 347 292 307 309 269 294 324 395 370 223 281 203 167 278 312 258 238 200 182 162 137 115 129 168 208 188
197 199 183 165 165 154 172 182 207 241 275 268 257 281 292 360 301 331 365 369 395 321 277 313 189 287 225 266 209 204 174 139 138 125 158 226 224 194
92 106 111 114 124 139 150 158 157 158 178 231 276 271 305 502 448 398 394 378 439 415 342 376 246 299 233 164 179 198 136 128 137 149 186 232 191 172
94 89 85 91 106 123 135 140 138 132 126 146 204 212 351 507 516 448 458 404 453 456 472 270 323 189 216 169 132 120 107 130 149 153 217 201 161 133
53 48 61 81 90 100 136 134 148 159 150 138 141 162 146 317 502 318 501 429 426 515 532 379 407 380 211 159 163 105 114 142 163 181 208 160 130 103
22 30 47 44 46 100 110 116 124 152 144 139 131 122 126 183 281 369 462 714 351 398 525 471 518 354 264 267 164 101 110 161 173 183 166 138 105 89
48 47 33 47 70 70 77 93 94 97 99 111 120 96 100 119 193 376 336 549 512 470 456 389 478 376 303 148 117 89 121 152 167 155 124 101 84 80
88 78 77 80 85 82 73 71 60 62 81 100 121 100 88 138 172 243 370 598 853 386 520 348 369 370 213 209 113 90 127 143 144 118 99 92 82 59
110 85 98 95 79 90 69 71 67 54 62 78 72 70 66 90 173 377 434 490 557 619 496 356 399 360 256 187 147 103 123 136 106 89 98 89 68 62
102 77 74 70 64 84 79 73 80 58 55 64 60 41 25 39 149 297 351 462 598 557 424 461 454 351 280 235 139 173 170 95 98 102 84 67 80 129
73 60 70 75 80 89 103 109 99 72 72 60 28 48 183 171 259 459 451 437 563 484 447 532 467 286 233 173 172 201 204 195 164 127 94 89 93 113
73 63 75 75 80 83 80 52 54 54 22 9 -17 117 247 250 325 401 425 480 404 299 267 337 229 185 201 189 185 190 170 152 123 104 99 100 115 124
64 60 63 64 43 55 49 63 34 -10 0 5 27 152 264 273 332 460 441 451 432 263 223 150 124 162 161 172 168 174 179 131 124 115 110 131 138 135
39 44 41 43 37 31 -3 -12 1 -20 -44 15 33 196 248 291 342 351 314 312 303 230 153 113 120 139 130 129 136 154 118 125 138 154 145 111 87 78
13 -24 -11 3 29 22 -16 -37 -2 -14 -36 25 113 180 227 299 353 275 186 170 108 81 98 85 89 92 99 100 112 104 109 106 112 123 111 72 80 68
-24 -37 -20 16 43 13 2 -7 -3 -21 6 30 110 169 217 269 294 187 149 93 69 70 64 64 98 97 89 60 49 98 104 105 121 99 97 88 65 102
-33 -49 -10 23 55 28 5 -31 -11 4 36 33 100 176 216 209 186 121 84 62 64 65 76 81 79 79 83 80 81 84 106 98 103 101 110 114 76 90
-43 -37 24 48 77 41 18 -26 3 36 55 75 140 175 137 134 80 51 36 49 58 68 60 53 50 51 72 56 68 87 88 113 123 105 98 91 87 39
-37 -20 33 69 100 43 15 -15 16 39 47 92 97 88 56 21 17 22 33 36 54 31 29 12 18 54 75 80 84 94 110 53 79 120 107 72 65 72
-15 6 67 78 90 48 13 -14 9 23 52 89 66 59 8 4 8 26 44 33 -1 2 8 15 36 72 80 98 91 89 91 71 48 16 18 78 104 75
2 40 72 82 95 55 5 -8 3 42 74 92 68 28 0 8 27 17 5 -5 -1 6 11 16 26 66 68 99 77 90 86 55 115 90 57 29 56 70

GFSNE_con_3kmhel_012.txt.gz
Helicity
179 168 182 178 162 146 144 163 158 163 183 191 266 261 331 366 316 283 300 208 225 159 179 99 77 107 103 100 104 117 132 243 212 163 171 148 130 125
172 189 174 158 156 149 153 160 166 179 187 194 219 221 244 319 289 292 296 203 218 195 150 193 161 145 111 141 166 161 301 300 239 201 162 150 139 140
141 134 156 158 155 143 139 144 156 157 187 132 156 168 209 240 265 297 296 293 292 202 140 162 219 183 172 235 283 274 330 293 214 196 140 155 154 150
116 130 137 123 118 95 82 100 111 125 149 149 97 117 138 175 241 256 308 361 362 304 137 152 202 212 220 342 312 316 319 302 231 172 167 182 157 125
103 91 87 77 74 80 92 93 90 96 110 139 130 106 115 134 160 253 263 368 359 288 234 190 155 241 306 371 409 426 381 224 209 148 160 151 150 108
84 82 44 51 71 83 89 91 98 110 118 131 132 98 81 78 134 151 163 259 224 250 255 254 212 233 264 380 577 438 305 327 221 157 166 156 115 112
71 42 34 59 55 24 75 87 85 83 81 82 98 110 106 90 93 85 172 195 247 359 332 265 326 416 513 354 570 444 262 278 219 121 84 130 103 97
72 44 51 45 42 127 109 100 97 100 95 102 104 105 90 123 127 114 110 123 171 320 370 370 535 545 504 477 506 386 378 237 203 71 123 108 97 96
95 83 73 88 72 66 87 85 73 78 64 98 113 107 107 103 114 132 106 160 201 339 328 309 485 420 660 610 535 465 280 154 141 114 117 80 99 126
120 98 132 125 51 73 83 67 64 50 47 60 84 99 109 113 114 98 66 69 249 444 492 468 496 424 468 530 525 282 209 147 131 93 72 91 129 128
104 110 128 101 50 81 73 62 63 86 55 44 51 71 82 69 91 118 98 146 158 393 538 463 455 589 565 565 394 219 181 149 81 57 84 105 119 110
93 82 40 49 69 69 62 61 76 74 37 11 26 55 95 107 75 129 154 145 234 247 394 549 535 617 474 413 380 335 214 105 57 59 77 97 121 170
77 67 66 43 50 59 64 56 61 40 27 15 16 29 49 78 142 114 122 116 128 252 301 472 501 562 472 384 386 255 167 129 147 99 91 120 105 101
72 68 70 29 49 45 40 46 60 49 37 42 40 -2 -8 31 85 69 92 180 237 231 190 307 342 505 525 418 309 208 153 170 207 237 212 169 94 80
60 39 18 29 37 25 38 63 50 47 54 41 18 -27 -7 -3 83 174 230 298 369 412 369 287 257 279 224 160 142 150 221 171 178 173 156 129 128 145
16 16 13 13 16 25 24 15 26 55 31 13 -37 -24 -32 47 149 172 199 217 283 279 220 189 203 136 113 133 152 191 192 163 147 124 129 128 139 147
-24 8 -11 -22 -10 21 20 3 22 16 -13 -24 -42 -31 -18 92 161 153 147 144 147 130 139 125 108 112 116 103 144 126 126 122 114 165 159 126 112 105
-34 -16 -33 -32 -8 12 14 25 25 4 -45 -48 -36 -29 14 85 145 134 125 63 70 42 51 47 54 80 93 83 66 99 98 105 122 131 125 121 87 89
-49 -41 -44 -33 -6 5 17 10 23 -18 -25 -38 -11 -6 45 82 131 140 58 33 51 50 43 38 57 72 95 96 70 64 97 97 107 103 106 116 97 98
-66 -47 -27 -13 -8 14 31 20 17 -22 -23 -4 2 4 66 122 90 38 25 44 31 26 45 50 44 40 53 49 57 55 33 75 92 96 104 110 95 63
-39 -24 -17 -19 1 24 48 25 9 -6 -5 8 11 49 120 77 26 8 18 16 9 12 25 15 10 35 49 62 74 74 72 42 56 99 71 73 80 82
-27 -15 -13 -14 13 57 58 32 19 19 47 46 104 158 136 91 26 25 3 -11 -10 -4 7 6 25 39 43 50 50 60 72 63 13 -1 39 80 66 55
-14 -14 -7 8 44 82 65 32 36 57 92 154 180 165 99 22 -25 -29 -20 -18 -4 4 5 7 9 23 28 48 49 68 70 72 62 39 30 12 42 24

GFSNE_con_3kmhel_015.txt.gz
Helicity
161 171 182 157 149 163 182 192 206 185 134 109 130 133 139 152 176 219 215 195 200 179 142 112 105 109 102 144 144 142 126 125 112 125 151 256 237 143
117 128 135 131 123 87 79 83 103 146 141 112 109 121 108 110 124 180 211 190 185 193 195 182 152 124 134 111 149 147 157 178 127 151 196 236 231 187
90 94 110 97 88 78 64 66 75 87 126 84 108 95 103 111 105 121 169 199 194 147 165 152 170 233 204 164 156 144 161 182 142 180 246 294 290 210
76 85 88 99 77 62 54 72 87 100 101 108 60 46 52 83 112 103 113 135 164 153 127 123 151 156 191 160 157 158 149 169 181 278 375 346 311 291
80 73 76 56 35 30 50 65 69 104 117 142 133 96 67 58 51 71 97 115 111 105 114 114 113 121 112 140 100 123 155 188 247 423 628 447 389 256
75 67 46 40 45 41 42 51 96 59 66 100 119 96 88 63 77 72 56 87 95 108 100 109 111 112 71 29 65 100 205 240 362 616 678 660 403 271
66 56 45 52 36 53 85 127 112 84 65 50 57 61 46 38 59 62 69 36 37 93 98 116 136 145 174 71 58 134 215 400 324 773 635 602 377 351
64 50 63 62 56 93 117 116 105 123 100 83 46 31 26 42 41 48 56 48 -9 66 94 120 161 171 163 194 184 185 275 581 830 598 650 426 337 324
96 91 92 92 102 89 80 94 79 75 96 87 73 55 45 52 62 68 71 80 73 68 41 80 149 135 163 255 178 309 464 762 703 503 355 354 281 274
105 105 95 80 71 72 75 71 62 44 55 62 66 90 81 76 72 103 108 111 91 65 111 77 100 147 251 277 250 402 579 668 535 377 290 308 298 231
98 91 69 62 40 36 52 62 61 84 49 29 27 39 40 43 42 50 105 115 95 79 135 133 127 248 299 329 323 360 499 576 514 338 309 277 225 118
100 63 27 41 26 28 47 60 68 39 29 5 -31 -23 -2 23 31 74 121 148 152 32 130 167 256 358 247 296 470 494 543 544 387 278 191 156 120 149
77 60 60 10 14 23 28 33 46 29 16 -19 -38 -37 -11 10 48 65 74 105 48 -72 17 257 319 419 338 292 429 606 592 418 353 210 134 85 75 156
93 92 61 9 11 12 28 27 34 27 11 -25 -34 -41 -26 10 38 39 12 -51 -27 -63 -50 305 263 455 504 433 377 506 474 423 291 196 118 64 69 78
118 51 13 -1 9 10 13 25 25 7 -21 -36 -27 -31 -28 -22 -30 -66 -50 22 182 247 317 326 257 372 380 337 366 412 450 252 172 175 224 189 178 172
83 16 -6 1 17 -17 -9 7 7 -10 -49 -44 -38 -41 -65 -57 -52 -81 -50 153 226 252 286 284 282 262 228 204 209 249 152 126 118 128 163 177 168 128
3 18 -1 20 9 -19 -12 15 30 -10 -49 -42 -41 -80 -67 -65 -60 -53 81 129 141 133 113 128 181 169 135 69 107 134 127 101 110 165 159 144 105 102
48 34 29 -27 -53 -22 16 50 31 4 -37 -23 -37 -58 -50 -43 -14 7 89 65 75 43 43 82 75 71 87 149 106 99 113 121 113 132 144 139 123 112
74 73 -6 -63 -27 16 20 40 37 10 -22 -23 -28 -34 -21 -5 -3 48 97 59 23 27 47 55 58 29 59 82 81 61 82 93 121 125 122 134 137 126
57 -85 -64 -24 6 27 47 66 42 -6 -13 6 -5 15 20 30 62 109 88 34 25 31 20 18 58 82 58 53 58 51 46 85 100 113 112 110 99 102
-14 -69 -36 6 31 41 79 72 27 8 36 72 52 66 84 110 69 39 8 33 8 -23 -4 24 36 45 32 46 78 78 69 32 55 89 97 107 109 107
-68 -44 4 22 43 66 98 64 22 47 135 127 109 138 124 74 35 18 -12 -26 -14 -17 -11 3 17 30 44 55 49 47 45 37 21 16 45 76 99 90
-41 -11 17 38 66 98 102 45 44 139 202 124 140 148 122 46 -12 -17 -16 -18 -20 -7 -8 -4 -1 5 12 32 53 72 79 63 63 70 61 41 16 88

GFSNE_con_3kmhel_018.txt.gz
Helicity
95 101 117 126 149 169 189 217 217 192 110 53 66 89 105 89 75 64 51 43 55 57 89 126 124 116 131 126 115 176 108 91 92 131 150 135 134 129
72 79 88 104 122 167 138 124 131 144 152 93 48 63 42 60 58 65 70 55 56 58 67 68 84 114 133 120 142 116 128 110 113 123 131 140 157 168
69 76 83 85 96 78 78 80 89 98 112 89 86 95 36 28 19 46 53 62 62 62 78 78 88 73 84 113 128 133 124 114 128 93 100 131 179 205
45 71 55 53 50 46 47 54 49 40 52 126 89 68 62 38 85 66 38 44 50 47 34 38 69 98 107 77 104 118 107 98 90 125 145 135 175 235
80 64 47 41 24 12 24 9 1 13 72 108 92 64 53 40 46 65 52 52 51 68 90 81 66 59 77 102 81 76 90 98 122 103 79 109 164 262
116 84 58 37 47 47 37 38 34 72 70 74 80 79 39 16 26 44 27 55 42 57 67 89 5 20 49 56 60 70 81 72 76 80 77 82 140 236
112 85 63 56 58 73 85 67 80 84 88 89 99 92 87 53 19 -14 15 11 44 36 38 43 43 61 85 81 67 95 79 67 51 46 56 48 186 360
109 86 80 60 62 79 71 81 88 107 96 94 103 113 100 88 73 50 37 9 -40 -17 -25 19 19 7 18 72 89 106 130 107 78 49 75 101 326 640
110 109 101 104 72 44 30 40 49 49 45 71 107 124 127 120 120 104 89 46 35 19 29 38 51 35 37 15 12 44 109 92 59 76 77 365 657 727
113 113 108 93 71 52 43 41 43 28 53 71 85 99 108 135 111 61 18 39 50 35 53 77 55 55 50 70 59 67 79 68 63 126 457 680 627 796
115 115 90 88 55 19 55 44 50 50 34 23 23 19 11 16 30 46 58 33 -6 13 45 86 83 48 108 89 82 75 67 38 210 453 546 613 698 632
125 105 54 69 22 32 44 59 42 17 21 34 21 35 23 32 -7 42 80 46 13 -82 -16 58 59 137 32 42 66 75 51 160 354 523 524 588 457 496
128 123 147 52 36 26 15 69 60 -32 -38 -23 -14 6 22 6 18 31 51 29 -32 -68 -27 2 9 40 123 93 91 183 357 359 480 520 526 410 320 383
112 139 176 94 39 25 52 -1 -15 -16 -42 -30 -16 -18 -27 -45 -33 -13 -15 -25 -79 -75 -33 -17 -9 47 166 163 166 330 577 636 576 547 404 263 197 191
120 104 90 50 34 59 33 -6 -14 -34 -14 -20 -23 -30 -51 -60 -26 -26 -36 -59 -103 -107 -41 -47 -54 113 164 193 245 357 521 504 440 413 318 256 204 203
114 131 95 66 51 60 83 84 13 5 -15 -20 -35 -40 -40 -43 -23 -33 -42 -82 -89 -78 22 99 151 146 139 137 228 343 417 400 395 326 300 271 270 251
83 128 109 100 109 117 71 37 59 38 12 -22 -48 -51 -7 6 6 -17 -38 -38 -27 24 77 108 154 171 189 227 263 339 400 278 209 196 192 208 216 200
105 126 112 115 55 -10 39 84 106 73 25 -18 -33 13 47 6 26 4 -17 -10 48 54 58 71 80 107 117 137 113 113 133 92 127 144 172 164 121 124
88 111 106 2 -2 42 76 104 126 106 26 -8 47 106 59 44 41 19 21 37 48 55 40 63 75 52 61 59 23 25 28 41 99 126 124 115 93 88
77 54 -17 3 46 84 104 131 141 47 30 97 141 142 84 62 54 46 58 44 48 34 50 24 34 33 2 4 3 29 47 73 85 108 121 148 158 126
-42 5 8 38 86 105 137 155 98 84 131 185 227 127 95 84 79 32 32 45 15 -19 -12 13 30 45 26 29 63 58 67 65 77 92 107 137 127 106
5 28 46 80 108 132 170 133 113 203 217 236 198 115 105 67 30 13 -13 -45 -31 -14 -15 -16 -1 12 29 36 57 60 67 72 79 71 79 73 67 67
26 49 76 114 133 159 161 127 211 251 244 268 176 104 54 34 26 -6 -28 -29 -22 -16 -15 -14 -8 9 24 28 36 44 49 56 59 70 66 57 74 114

GFSNE_con_3kmhel_021.txt.gz
Helicity
45 42 52 58 72 90 149 146 172 148 91 58 52 43 45 41 14 59 43 43 60 84 93 105 87 67 59 59 69 44 59 26 98 204 165 164 125 113
74 76 76 103 103 118 120 126 136 157 183 121 55 49 26 85 65 48 11 48 69 68 70 72 85 95 88 53 58 59 59 29 11 74 109 110 131 93
76 80 93 100 98 97 81 62 68 105 132 140 100 61 68 62 23 12 43 54 53 56 75 82 107 99 101 110 83 86 99 85 56 38 50 83 92 98
118 114 115 108 88 66 55 55 48 27 32 55 59 50 54 12 -18 -28 -19 40 74 64 79 124 137 124 115 89 89 91 101 114 119 105 73 32 61 99
128 124 119 111 102 95 83 75 60 77 64 81 84 54 30 0 -13 -10 -5 -3 35 59 95 112 131 148 111 101 96 111 95 101 113 110 83 75 65 35
119 124 111 100 90 86 88 86 90 86 78 75 68 56 36 17 18 17 12 23 25 37 82 92 112 147 152 123 71 53 77 73 85 94 94 78 85 92
123 109 104 95 81 95 121 110 104 117 127 115 117 107 88 46 41 46 65 79 113 105 101 94 91 103 126 116 95 122 95 96 111 110 111 100 99 88
107 96 110 95 82 53 51 42 57 105 105 103 95 98 78 80 79 82 103 93 148 163 108 91 117 123 106 100 70 54 75 143 143 139 147 116 87 71
97 108 117 99 63 84 53 29 74 44 64 104 116 126 89 64 40 26 47 69 101 69 56 61 62 81 112 145 159 160 86 85 111 106 131 140 97 53
97 86 86 92 82 58 73 108 64 75 82 104 104 112 109 98 29 5 -22 -26 -9 27 29 19 18 43 91 143 161 178 117 106 98 113 129 105 105 66
98 88 83 88 50 24 69 74 56 81 80 35 34 19 -10 6 -10 -29 -10 1 -10 -4 23 14 7 41 100 161 187 146 123 112 98 104 110 117 106 267
99 93 57 52 17 38 65 71 97 104 91 20 33 38 31 -5 -1 -46 -51 -51 -47 -27 10 -5 -26 -48 -25 37 113 86 74 108 147 85 70 256 482 643
116 116 126 38 43 30 19 77 89 63 54 13 -12 -12 -19 -32 -52 -58 -73 37 -3 -4 -6 -17 -9 3 2 1 22 20 66 111 136 155 319 469 551 699
110 138 131 42 18 14 32 20 12 30 95 -35 -29 -9 -40 -47 -50 -64 -36 31 9 7 -3 12 11 2 1 16 38 58 125 335 356 428 491 523 610 618
130 99 53 35 30 43 21 13 2 -10 -15 -11 -14 -18 -36 -41 -40 -9 39 47 11 -10 -13 -7 -3 2 11 21 51 73 195 511 537 539 486 437 414 348
107 108 69 52 45 52 74 69 28 14 -15 -10 -15 -29 -48 -29 2 61 51 23 -5 -31 -47 -11 8 -3 32 64 79 100 235 328 508 552 518 329 268 282
77 121 105 84 96 97 72 53 67 44 20 -6 -49 -29 36 75 121 88 55 18 -4 -11 -13 21 65 85 75 86 118 182 255 434 393 397 401 374 355 262
104 111 95 90 28 42 62 104 115 67 22 31 72 109 140 157 154 83 38 15 9 23 36 41 78 89 78 193 230 221 286 322 326 325 335 323 284 239
97 88 13 31 59 73 102 135 118 85 133 146 184 200 226 212 116 58 40 48 48 59 74 66 77 75 34 27 145 193 166 195 201 264 217 179 182 153
81 11 42 64 77 109 148 144 116 190 209 221 223 273 195 115 84 71 81 107 132 138 122 57 40 31 26 18 5 60 63 66 100 127 148 175 143 82
-1 43 61 80 113 154 154 146 211 243 216 243 265 227 121 103 91 94 76 43 45 41 6 6 38 37 2 22 31 62 111 73 55 73 115 138 123 98
37 70 92 108 153 167 177 236 266 292 292 271 244 153 104 72 50 29 10 8 4 -7 -15 -3 14 2 10 19 42 51 81 140 129 129 138 101 89 74
58 90 119 147 167 176 258 260 292 316 268 208 155 88 68 41 16 -15 -22 -20 -21 -24 -23 -20 -5 17 30 37 43 52 66 72 75 95 119 129 145 43

GFSNE_con_3kmhel_024.txt.gz
Helicity
72 83 98 111 116 166 167 194 218 257 211 145 105 101 145 132 92 135 110 133 136 87 92 99 97 81 94 95 95 107 98 85 48 -18 -247 57 191 145
106 111 122 135 167 178 180 189 195 208 246 194 155 103 63 79 98 72 71 67 12 16 40 51 96 106 88 87 94 99 82 92 95 70 8 -28 -28 57
105 121 128 133 170 174 175 172 172 167 207 202 163 104 77 67 55 39 39 16 -15 -35 30 55 82 119 121 109 103 96 103 102 89 98 113 88 61 10
108 123 140 162 161 157 159 149 162 157 189 185 157 140 101 79 75 69 48 35 16 2 2 20 59 88 117 122 121 122 99 100 115 111 111 105 111 58
127 146 145 151 150 155 149 160 157 156 155 154 164 150 142 117 89 79 59 32 15 -13 -7 2 16 57 101 116 131 131 124 114 96 103 102 110 125 104
144 151 143 148 142 130 133 114 122 137 129 147 168 160 139 105 109 107 68 61 30 17 -4 13 37 67 77 95 122 148 147 153 160 104 119 84 97 101
134 129 127 105 71 75 119 112 115 128 141 139 163 131 107 91 103 103 94 59 28 21 9 19 22 62 105 134 136 179 136 135 167 221 203 120 98 90
134 111 101 74 90 74 58 57 62 102 115 128 126 127 107 134 122 112 100 79 42 62 30 42 23 38 71 64 148 163 154 130 150 149 151 169 144 108
117 109 103 111 103 96 70 46 57 47 49 107 117 118 122 119 114 102 101 79 9 -20 0 21 65 36 58 68 97 156 182 191 186 171 141 123 151 137
99 108 99 92 80 74 84 105 113 85 90 96 102 117 123 132 114 89 -21 -30 -21 -17 -18 -6 -7 -14 9 45 83 145 184 202 174 154 157 115 97 106
104 102 90 85 54 35 78 71 58 58 52 26 31 21 16 12 24 7 -33 -51 -23 -32 -34 -41 -25 3 2 2 73 180 199 191 147 121 122 89 78 96
103 97 70 68 36 40 68 74 77 82 79 62 68 59 48 37 -3 -4 -30 -37 -44 -34 -52 -13 -36 -6 -23 22 26 58 95 136 133 159 170 145 122 100
135 124 116 47 39 26 25 72 78 58 54 66 41 31 17 -8 -44 -48 -47 -57 -77 -56 -36 -51 -43 -2 20 59 65 40 77 129 112 132 144 91 85 267
122 130 110 50 27 24 38 28 0 -31 14 12 12 -3 -31 -50 -52 -50 -35 -20 -11 15 33 22 -20 7 21 27 78 53 96 127 136 138 258 243 256 356
126 99 55 42 36 45 24 -9 -23 -35 -18 -6 -34 -34 -49 -10 16 22 48 74 89 84 40 35 15 -17 9 39 50 70 86 134 280 366 469 437 422 421
111 118 78 61 42 31 -2 -5 -13 3 -19 -20 -14 37 61 57 75 87 104 126 61 2 23 -12 -30 -26 8 47 98 88 104 133 324 426 499 561 587 648
98 104 101 64 31 8 9 26 63 24 -2 42 54 84 118 145 162 168 147 33 15 5 1 -4 23 48 47 58 63 50 113 185 333 405 425 374 310 322
98 100 19 -35 1 19 42 89 85 68 101 110 133 156 177 209 220 98 42 36 38 50 60 54 73 62 41 93 196 123 199 267 332 294 259 280 267 276
89 26 -23 -5 34 57 81 84 123 163 170 175 186 171 205 195 114 95 120 129 142 147 160 157 124 116 74 116 188 279 222 249 298 318 260 235 278 282
67 -23 5 32 57 83 102 158 198 214 206 218 196 203 194 138 135 135 136 116 118 127 109 88 62 38 -13 39 147 207 226 199 226 237 243 285 326 308
-22 17 26 54 86 101 176 214 213 229 202 210 198 169 124 96 87 73 68 61 51 42 41 36 48 57 76 82 31 92 140 176 174 174 189 209 182 198
11 37 59 89 104 164 228 225 231 225 188 158 128 116 83 80 67 56 41 35 23 19 14 0 4 -3 6 2 33 68 92 94 114 131 126 104 97 82
29 57 101 111 145 224 229 214 195 203 183 169 141 122 118 104 10 -14 -9 -12 -7 -5 -4 0 7 12 28 29 41 63 93 99 97 107 140 118 56 58

GFSNE_con_3kmhel_027.txt.gz
Helicity
96 99 113 138 146 177 199 264 269 212 199 187 164 131 138 145 103 120 117 105 83 71 73 92 68 73 70 101 105 119 112 86 66 122 108 93 38 -30
104 111 120 154 177 207 221 254 272 279 275 222 198 149 120 116 98 98 91 81 56 31 34 43 36 38 73 102 106 104 125 132 125 107 132 109 77 61
98 121 140 151 189 215 237 236 238 233 241 216 189 152 117 93 96 102 114 98 100 36 31 30 31 33 38 79 109 112 108 113 102 127 146 170 139 68
114 133 144 178 184 198 210 200 203 179 187 178 161 136 121 99 108 101 105 86 92 67 37 17 28 25 20 32 83 120 105 99 90 101 105 123 99 141
126 141 143 160 182 184 183 191 175 172 171 181 181 173 164 145 128 108 87 86 109 73 45 46 41 32 21 36 65 118 124 108 108 95 113 105 108 92
126 129 129 162 156 172 164 155 163 160 166 173 196 189 175 150 129 116 65 86 107 95 69 45 18 24 26 30 55 116 160 131 107 152 134 128 168 98
100 102 133 131 89 98 160 164 135 161 164 171 185 178 156 124 105 103 122 114 120 98 97 94 83 71 53 19 25 47 102 182 135 137 108 126 162 172
87 110 140 112 125 105 95 63 82 137 137 167 143 169 135 141 128 128 142 141 37 105 86 84 65 60 64 59 27 40 71 97 124 87 89 111 129 124
97 140 154 159 134 125 89 79 106 75 73 114 133 137 122 116 115 128 123 131 103 43 109 61 82 20 54 11 5 43 76 92 111 135 104 91 97 106
128 140 137 140 123 99 118 121 130 109 104 123 118 115 114 119 111 60 -0 7 19 60 93 29 -72 -23 -42 -20 -3 35 73 121 141 151 147 107 87 103
142 137 115 119 86 62 104 116 98 109 83 53 38 23 5 -1 -7 -47 -15 -45 -12 -14 145 -29 -76 -74 -83 -26 29 70 94 151 155 220 96 98 71 97
152 131 81 97 68 56 92 98 103 102 94 61 48 45 46 58 18 18 -38 -46 -34 -6 -15 -68 -70 -55 -16 11 17 22 -13 58 99 178 172 99 94 78
161 148 142 72 52 44 37 89 87 -22 -73 -60 31 110 125 112 103 76 36 -33 -60 -13 34 -19 1 9 11 68 64 64 55 64 96 126 107 77 59 45
146 150 144 59 48 32 52 20 -19 -46 -24 84 114 103 58 23 16 31 56 73 85 100 130 101 75 74 90 66 86 83 85 109 86 76 37 16 14 -0
137 105 60 39 41 62 27 -12 -29 55 95 44 -24 17 33 79 135 165 180 170 153 155 130 64 12 -36 -29 48 99 123 128 131 113 138 231 325 253 250
111 110 73 56 47 -8 -14 17 100 49 -44 -9 30 72 103 135 166 186 186 125 47 11 -12 -9 -21 -17 -0 60 64 152 154 109 100 243 381 482 511 472
62 109 111 83 15 -3 53 99 43 21 52 74 102 140 168 182 208 216 92 98 83 102 84 29 -5 -4 20 95 74 79 78 90 152 225 379 413 561 547
92 113 -15 -40 4 32 49 62 92 95 129 149 163 184 183 179 183 109 86 74 103 131 152 99 80 58 63 70 154 138 131 178 179 253 262 301 355 355
103 -38 -23 13 45 51 51 97 136 160 170 170 177 174 189 188 136 125 113 124 129 136 136 135 139 118 63 97 164 246 214 239 203 306 273 264 283 306
40 -24 33 51 48 64 120 141 164 181 173 176 164 176 158 150 118 114 101 108 104 107 102 99 84 80 107 132 179 215 167 164 187 230 246 281 301 281
-17 28 48 70 72 123 154 164 158 162 140 172 195 194 187 129 111 106 94 78 50 36 24 20 76 110 134 118 151 221 189 207 219 228 234 323 345 378
13 52 75 73 115 161 165 142 156 164 188 193 197 176 99 56 65 67 53 60 56 5 -9 -27 11 -4 9 40 84 159 185 233 257 202 213 219 285 340
45 74 88 114 166 177 147 155 170 193 201 190 167 130 30 26 26 11 18 12 14 -8 -8 -9 2 9 26 33 64 93 101 121 122 127 146 90 50 147

GFSNE_con_3kmhel_030.txt.gz
Helicity
118 124 136 138 143 152 166 173 178 163 173 176 162 136 156 130 115 100 106 63 43 30 52 67 45 69 80 100 91 90 123 135 149 149 109 131 95 86
123 123 123 133 142 156 176 193 224 244 216 189 180 159 136 131 132 107 115 59 43 34 27 42 54 65 68 76 83 72 63 87 121 136 135 128 127 84
120 125 126 125 144 165 177 206 221 233 260 217 196 159 125 105 107 109 121 128 127 37 23 34 38 20 21 24 41 54 48 69 78 104 129 145 161 146
126 123 120 136 132 155 188 186 217 211 225 201 205 177 151 118 123 134 124 127 100 68 53 26 23 29 39 61 53 43 45 57 74 94 102 121 121 100
127 121 114 113 125 161 177 192 192 194 203 223 235 214 178 188 159 152 120 111 114 82 46 32 27 38 18 29 35 40 43 55 72 95 139 85 126 124
120 111 100 112 136 139 151 154 179 199 203 230 245 220 182 184 168 156 90 100 101 83 74 54 16 12 15 16 30 31 32 49 72 89 103 109 103 136
109 99 111 99 67 86 153 172 167 174 201 205 187 204 224 119 113 118 141 120 129 115 111 134 90 90 107 53 34 21 19 27 45 62 78 147 129 115
112 118 127 97 108 106 107 71 87 152 152 176 178 148 151 162 154 160 176 186 26 133 135 131 131 139 119 101 31 25 32 61 46 64 47 52 141 112
127 133 137 150 121 139 93 67 116 82 79 122 148 167 149 154 141 117 156 168 167 161 133 51 137 105 105 80 -35 -5 34 52 48 59 55 60 85 75
144 141 136 139 121 91 97 122 132 136 117 136 140 128 133 101 93 43 -42 -49 -14 157 131 44 56 -24 18 61 -25 -28 0 35 59 75 62 69 86 82
154 153 135 123 76 42 81 119 116 131 94 51 38 42 19 28 22 -32 -84 -119 -71 108 174 67 25 37 65 71 118 95 63 38 74 68 91 78 84 101
163 151 89 97 41 28 78 95 106 94 75 32 96 95 95 95 35 37 21 22 40 73 181 70 115 108 95 124 73 44 13 14 35 34 30 63 112 73
160 153 146 50 36 33 21 80 49 -35 -73 92 149 148 114 75 76 85 130 160 177 210 222 75 124 141 139 112 152 113 78 60 3 3 42 48 100 130
135 149 141 44 24 18 36 9 -11 -41 123 132 69 76 79 94 114 153 189 217 202 173 177 128 119 91 72 72 117 126 91 76 56 47 25 23 63 94
123 95 47 39 31 53 25 0 -4 45 56 80 96 120 134 172 200 219 211 159 145 174 151 57 -3 -30 10 77 152 153 83 63 89 14 -49 -38 7 40
107 110 79 49 44 9 49 85 63 59 64 93 141 166 163 158 159 165 188 150 130 133 115 101 64 16 22 93 168 178 149 68 76 63 167 174 147 80
49 99 83 71 18 61 102 75 107 115 116 126 140 168 176 163 170 181 199 178 160 190 163 129 85 66 40 164 147 97 89 60 91 191 276 311 299 229
86 22 -31 6 28 45 68 150 160 134 133 151 175 185 190 192 208 189 158 147 162 183 142 147 126 103 66 100 187 149 159 134 154 228 273 371 331 342
-35 -39 12 28 48 80 148 165 164 144 138 155 182 179 201 218 170 148 134 127 149 120 100 81 136 124 113 146 222 154 187 205 146 223 216 216 226 301
0 3 36 50 78 145 172 150 140 150 147 162 148 143 142 134 84 77 89 104 102 75 101 97 100 127 133 176 256 189 142 187 174 165 184 224 213 189
10 57 78 84 136 172 164 149 151 157 120 143 144 128 135 111 44 60 65 54 31 -2 -12 29 89 53 100 151 208 255 211 227 250 252 218 242 283 288
63 84 88 120 174 173 167 167 178 170 158 173 163 171 174 62 45 57 54 44 37 -7 -23 -26 -5 37 99 111 153 178 182 198 278 295 237 222 232 236
84 99 128 168 186 191 185 178 172 175 182 189 185 203 208 143 112 82 52 32 13 -29 -29 -10 6 16 54 93 102 128 144 174 181 226 208 261 294 235

GFSNE_con_3kmhel_033.txt.gz
Helicity
129 143 141 134 148 161 178 184 202 202 181 140 134 125 140 137 110 95 112 67 52 50 56 63 75 91 108 110 129 166 188 99 101 84 90 77 93 158
147 148 144 154 152 152 168 180 182 198 210 166 148 145 142 140 137 101 117 50 52 39 37 39 54 62 63 46 76 68 59 67 70 44 39 60 68 86
129 158 142 134 143 154 154 166 185 199 213 188 187 161 139 144 138 127 96 110 107 34 28 27 39 32 47 59 46 47 53 55 59 73 93 98 38 53
150 153 140 138 137 135 156 163 179 182 197 176 194 174 173 135 122 99 79 146 115 54 37 46 22 25 20 31 42 67 61 61 57 50 47 69 43 56
144 141 130 124 128 143 155 155 155 157 178 201 219 230 188 153 106 140 118 107 133 70 40 26 12 16 17 29 42 52 61 66 34 31 38 29 59 76
139 134 124 123 133 124 127 143 164 168 176 198 220 207 167 127 171 117 100 106 110 135 110 74 31 25 13 17 23 28 32 29 26 16 28 50 52 64
144 145 133 93 71 91 136 146 135 152 184 170 153 204 179 98 86 101 137 158 167 178 175 140 109 144 169 66 33 10 27 32 32 36 32 24 34 42
153 144 152 97 88 63 71 51 66 125 121 150 163 123 104 112 145 189 192 166 82 150 162 156 168 145 114 108 34 -13 -23 6 49 62 49 49 26 28
161 160 147 131 101 124 76 54 80 78 57 95 110 129 138 159 145 116 97 66 101 50 128 119 153 88 130 92 10 -17 -38 -34 -17 36 63 56 64 52
172 153 130 130 107 82 100 106 130 100 89 102 126 133 138 112 33 -62 -43 -34 104 161 133 113 191 162 129 138 94 55 25 -16 -40 -32 71 110 66 25
156 140 113 104 66 23 78 86 88 86 52 34 33 44 46 30 -2 -50 -14 23 107 168 167 152 206 164 148 171 176 105 36 18 33 37 108 100 76 37
147 112 68 71 22 30 68 82 66 -49 -22 66 75 74 56 88 46 47 115 143 174 242 211 161 172 156 131 209 156 156 106 75 37 9 8 5 14 -24
141 134 133 50 35 20 -7 29 -5 -41 6 32 75 108 142 160 160 170 180 180 197 236 196 105 175 163 64 145 166 149 142 81 31 11 16 16 15 16
129 136 134 54 -9 -19 -39 3 -10 -36 31 72 110 136 145 166 161 162 173 187 201 193 207 120 145 164 132 102 130 131 144 128 90 70 36 18 43 75
120 83 71 28 -17 -30 6 -1 -17 36 90 113 127 156 160 178 194 201 199 198 207 213 184 143 170 149 144 148 170 215 119 98 102 117 111 70 51 78
81 100 55 -20 -13 12 33 31 75 82 62 94 136 184 191 200 204 195 207 210 195 179 163 135 114 111 121 140 189 245 208 111 130 136 79 86 85 93
70 103 -12 -3 38 59 61 95 95 93 98 120 146 166 172 177 176 177 169 161 164 182 186 138 137 105 132 221 255 255 172 133 144 174 159 131 143 128
97 -27 -1 33 38 50 100 133 123 113 128 138 159 134 117 119 111 113 105 119 158 176 144 147 163 142 125 131 209 189 177 231 247 275 220 207 250 243
-15 -19 42 35 69 112 133 133 150 146 145 154 157 115 125 131 95 119 86 90 127 114 113 123 158 153 142 172 245 163 179 187 167 262 305 338 307 262
-1 44 50 82 128 141 147 149 162 171 177 201 190 200 157 84 109 73 53 64 54 51 67 95 111 118 162 200 266 261 221 173 161 150 200 243 213 262
43 61 86 115 143 161 177 181 186 196 144 163 200 180 150 98 108 60 38 22 9 19 14 64 127 99 106 126 170 219 219 170 135 151 141 164 181 191
57 87 112 143 170 181 186 189 195 175 169 167 190 194 184 169 182 59 29 23 15 -12 1 14 82 107 106 85 116 169 210 154 155 149 156 173 205 184
98 124 146 167 188 192 189 189 170 182 191 214 213 202 184 170 136 113 18 3 1 -17 -13 11 24 76 92 75 77 133 184 195 176 186 200 207 218 234

GFSNE_con_3kmhel_036.txt.gz
Helicity
114 142 158 161 179 211 225 241 274 315 266 181 144 127 122 122 93 87 119 88 68 84 82 93 101 104 107 105 112 116 116 95 72 99 101 120 123 128
130 145 162 193 199 194 205 205 210 230 274 176 141 125 125 132 105 99 125 45 57 40 62 76 101 95 94 86 60 95 85 60 80 102 87 46 36 51
138 162 173 169 174 181 175 179 190 192 217 188 173 143 128 134 132 111 89 115 95 14 37 49 46 63 59 75 96 99 90 85 85 83 79 73 64 27
161 169 169 166 161 145 165 172 185 185 191 171 171 163 163 140 108 102 90 104 137 60 19 20 22 29 33 49 59 68 82 84 88 80 88 90 74 79
165 171 170 175 160 158 172 176 177 167 177 199 223 213 172 125 111 125 111 96 122 63 30 21 15 21 24 21 24 27 42 49 54 62 65 69 69 49
173 185 179 169 159 155 157 153 170 169 172 199 213 181 193 135 153 103 78 108 152 152 93 57 47 39 25 27 25 21 37 45 41 39 30 31 37 46
189 179 160 135 120 142 163 167 138 150 172 149 161 216 176 88 70 105 168 185 164 156 168 192 128 163 163 68 -7 -32 -29 -16 25 38 33 24 13 20
166 161 186 139 132 108 91 62 68 112 110 170 150 82 69 104 116 153 176 103 8 125 141 174 183 150 175 156 66 5 -29 -36 -34 -32 -0 44 39 32
180 195 195 172 115 121 80 49 81 68 127 100 101 105 75 141 74 -23 33 68 143 173 78 131 149 140 172 159 62 31 13 -3 -12 -1 14 41 59 37
190 195 175 122 115 86 104 132 151 76 76 102 100 118 105 12 -2 4 51 92 220 224 185 197 222 241 209 216 128 74 39 16 9 9 50 71 69 78
184 167 105 106 69 34 99 97 81 93 68 36 53 45 49 39 20 30 76 104 217 254 194 199 254 243 224 248 222 93 31 18 18 3 -16 -8 12 60
157 106 67 75 32 53 72 80 -79 12 88 74 42 64 80 94 36 50 111 155 201 249 207 227 244 226 196 202 165 222 134 100 46 23 18 13 -14 88
132 131 117 45 42 27 -25 53 57 -14 -26 31 79 88 91 105 114 124 152 167 185 255 237 149 234 231 216 205 238 215 159 128 129 106 57 41 30 14
135 132 120 47 25 -9 -23 20 -12 -27 35 58 56 69 97 132 153 166 179 211 233 244 249 207 258 207 199 220 217 203 212 184 173 148 91 61 40 37
132 82 62 50 1 29 35 -12 -11 18 33 54 70 105 104 117 136 148 172 187 206 217 214 190 195 187 158 178 264 327 261 181 140 134 158 96 41 9
83 108 74 23 45 48 17 45 50 28 17 50 80 111 112 111 112 90 124 147 165 200 168 146 148 165 158 210 243 318 302 260 335 241 144 75 64 61
66 100 91 91 89 74 70 91 91 77 91 99 81 93 117 132 123 108 112 110 134 200 204 153 144 160 171 224 255 289 261 251 211 159 83 6 51 82
85 86 92 92 77 66 96 124 131 106 139 152 171 184 183 141 93 101 81 93 112 171 139 148 161 171 181 156 234 279 252 269 278 236 143 136 190 95
58 95 71 54 87 117 137 143 152 160 155 170 187 191 149 126 48 80 88 79 100 84 98 139 147 161 186 175 246 193 182 203 229 220 211 187 243 280
76 73 70 102 119 139 155 158 170 176 168 178 176 181 181 171 68 66 74 65 53 49 62 118 137 150 148 173 246 325 122 121 207 232 251 202 250 280
67 70 97 115 137 157 162 164 158 143 111 134 178 183 193 166 158 62 66 22 9 31 46 110 141 101 97 78 120 151 120 103 83 123 240 282 322 355
62 83 106 124 145 162 166 159 162 164 161 169 191 202 195 173 161 138 108 23 22 32 44 62 77 78 61 59 102 153 150 142 174 226 191 150 270 303
78 106 121 140 163 173 170 179 189 208 205 192 193 193 187 180 156 149 119 88 6 2 3 34 50 60 69 78 104 162 189 169 153 174 180 153 123 151

GFSNE_con_3kmhel_039.txt.gz
Helicity
92 103 133 135 155 184 199 211 241 243 203 208 184 161 134 137 107 100 120 69 44 70 76 97 118 133 149 148 150 197 152 137 138 52 45 49 35 29
109 132 145 164 169 175 192 194 203 227 313 223 187 155 139 133 105 86 104 33 53 39 45 51 65 81 85 92 104 105 105 149 134 49 51 54 63 104
125 139 143 154 184 189 193 192 200 203 258 242 218 180 150 133 123 114 108 113 132 26 30 41 34 43 42 46 62 77 90 99 131 111 66 104 85 95
117 143 153 167 188 190 200 182 201 217 208 181 209 180 149 149 144 109 105 115 153 128 54 16 16 12 17 27 41 44 45 60 76 92 128 148 97 72
136 156 165 185 193 193 200 194 157 171 189 202 214 199 200 169 123 116 135 112 179 102 54 41 35 35 36 38 41 46 41 41 51 49 58 63 47 52
147 164 175 190 199 183 162 186 184 180 178 184 194 217 202 172 167 143 114 152 181 161 114 143 67 37 8 -4 -20 -14 -24 -10 12 27 57 63 58 55
156 162 182 187 144 166 192 168 150 165 179 189 203 200 134 128 124 145 184 168 187 200 139 203 168 185 185 65 27 -2 -30 -40 31 45 56 60 51 42
170 186 206 142 147 106 88 76 72 116 116 156 152 122 123 145 121 92 62 82 214 202 205 282 229 245 229 209 102 27 1 -11 -23 14 60 86 51 53
188 189 180 162 112 138 104 62 87 98 89 113 128 129 53 107 66 53 79 166 215 244 171 236 213 252 228 202 84 39 18 9 2 -21 -28 54 79 69
175 159 151 128 118 87 108 134 95 95 116 109 118 112 100 52 46 64 100 129 239 247 183 263 247 265 218 236 142 71 31 10 11 7 -5 -15 2 19
149 137 99 107 68 40 105 106 93 103 93 50 53 49 38 38 29 1 45 78 173 223 221 224 273 279 292 344 256 147 95 67 63 73 39 29 16 27
152 111 88 81 36 48 75 78 96 103 92 68 48 60 68 90 35 56 99 122 152 217 228 267 273 257 291 372 297 279 213 156 80 51 45 33 26 39
140 126 115 44 36 10 -14 80 87 22 -7 37 90 101 110 102 99 102 105 119 152 231 246 165 295 281 256 346 339 268 221 214 165 127 65 32 26 6
134 123 114 37 2 -15 39 34 9 8 87 100 103 105 94 84 111 132 137 159 177 211 233 216 286 260 281 297 300 287 243 232 228 188 127 69 17 6
134 81 46 40 6 48 36 -11 8 94 106 116 114 137 147 160 146 154 158 153 172 186 179 208 235 252 244 247 303 304 266 247 170 235 224 166 100 22
94 103 70 52 43 53 68 74 102 97 80 108 140 160 168 158 169 155 150 157 149 189 172 159 139 174 206 204 254 396 393 278 316 241 140 131 104 55
78 102 88 79 83 79 82 101 113 108 107 122 131 141 147 132 145 119 101 60 51 86 213 205 147 149 181 171 284 328 265 220 215 171 71 83 106 86
92 89 94 92 89 84 108 127 139 100 133 139 141 161 168 165 122 113 84 43 43 95 143 163 179 157 145 110 182 261 151 189 211 209 189 81 59 101
92 97 99 97 93 114 136 146 160 171 159 166 180 198 180 182 115 125 92 56 62 104 83 110 126 102 132 150 172 108 220 175 184 135 202 198 190 81
83 73 97 99 114 135 154 159 171 177 169 171 162 149 169 165 161 153 130 53 75 85 68 72 78 99 104 138 201 305 204 109 148 148 183 193 200 142
60 86 93 99 119 138 148 153 160 179 153 170 150 138 148 149 173 166 154 89 44 52 57 74 100 90 89 56 98 150 186 175 124 132 190 228 282 297
64 80 85 106 129 147 166 173 185 192 187 169 133 113 140 153 169 166 145 113 82 50 51 56 63 51 47 65 98 110 131 166 145 232 251 216 156 260
66 81 103 122 149 168 178 182 180 205 199 184 165 152 149 157 164 157 146 114 73 25 6 38 45 42 65 82 83 120 133 150 165 154 294 320 242 216

GFSNE_con_3kmhel_042.txt.gz
Helicity
95 100 122 121 139 153 172 190 185 172 143 158 136 149 114 93 81 74 99 52 19 21 36 76 99 107 123 143 133 133 154 160 177 162 194 119 65 66
106 108 113 143 160 182 197 206 219 216 290 217 180 148 140 143 101 93 127 33 30 28 37 38 56 60 62 61 69 71 78 83 86 106 108 92 61 63
102 108 123 149 177 191 209 213 223 233 257 241 208 181 133 134 141 121 107 116 160 109 49 29 8 6 15 26 35 41 48 52 59 53 56 58 79 61
103 126 130 150 163 173 193 201 211 208 254 201 187 176 172 159 132 105 147 187 177 109 58 63 42 9 -13 -15 -5 13 34 45 51 53 54 62 57 64
109 129 133 148 145 157 183 197 213 191 187 205 216 206 216 143 130 128 144 165 177 108 125 58 26 23 7 -4 -12 -24 -34 -38 -8 17 29 48 60 62
131 131 132 132 133 155 185 195 184 179 173 206 234 216 212 144 140 129 123 161 155 219 204 108 127 90 63 40 23 9 -16 -33 -36 -38 15 38 54 48
124 126 127 119 128 175 189 181 153 146 178 178 206 131 131 124 127 112 129 192 238 252 214 189 260 247 218 139 92 45 12 -4 -8 -4 -19 -35 51 54
125 131 170 140 160 111 97 85 74 94 141 118 141 153 154 106 150 169 181 110 195 199 191 217 233 249 247 223 111 37 21 -2 -20 -29 -22 -24 -21 33
134 165 181 175 126 151 106 56 67 63 81 110 119 92 122 149 118 78 126 161 199 247 117 212 236 279 262 245 141 88 43 11 -10 -12 -13 -15 9 17
172 163 159 144 126 83 100 122 95 98 117 115 97 120 126 84 71 57 55 83 198 225 149 245 244 308 285 372 237 86 81 79 52 16 22 33 29 17
158 133 125 117 63 23 99 99 76 94 85 35 55 58 51 41 39 67 49 -33 55 172 193 186 275 345 342 413 283 181 170 114 68 45 39 60 52 13
139 140 97 81 24 49 83 80 78 89 89 79 74 69 71 106 56 106 129 78 68 118 208 210 249 228 232 364 340 294 265 192 88 58 39 31 20 75
145 135 128 37 33 37 28 77 82 29 34 58 89 108 124 131 137 139 133 147 166 219 261 152 257 237 247 365 377 349 275 269 206 162 75 33 27 30
128 127 113 36 31 26 40 25 5 20 79 86 92 115 119 132 150 132 138 160 196 224 228 199 252 230 267 324 349 367 317 295 268 201 192 170 79 53
123 71 45 44 37 48 28 10 21 86 86 90 103 124 133 150 156 134 127 130 153 200 194 196 224 235 258 252 281 316 286 295 155 253 285 288 222 160
92 106 74 60 42 46 54 68 94 86 73 111 133 152 156 154 170 155 148 131 135 122 144 174 159 181 196 200 180 306 311 267 277 175 156 73 125 114
86 112 93 76 75 73 88 102 109 112 126 139 137 141 155 158 189 150 150 131 101 48 152 181 127 113 145 173 183 249 223 150 186 204 157 127 112 98
98 94 90 86 81 92 103 124 147 123 140 142 144 158 173 172 173 174 147 139 97 66 119 125 136 128 143 71 139 148 101 141 180 164 178 173 122 145
91 94 98 95 101 107 126 145 159 161 148 163 164 184 177 177 122 158 153 141 146 83 110 84 94 53 119 111 181 22 175 174 133 132 179 163 143 108
83 81 88 92 108 123 143 158 169 170 159 163 173 158 161 146 153 147 150 131 122 89 99 71 67 58 103 118 187 217 156 167 158 64 146 200 164 70
60 61 79 104 125 144 166 178 183 183 150 170 178 176 172 73 69 163 158 82 50 50 74 76 103 84 83 53 53 107 133 175 200 192 122 158 195 155
39 72 99 117 141 161 183 187 186 191 187 182 176 182 178 159 148 161 150 97 92 67 60 82 73 57 33 27 58 82 80 146 176 247 241 144 121 153
62 83 111 140 168 191 199 188 195 220 208 195 194 188 180 169 145 142 137 116 75 16 20 40 38 11 27 28 40 62 77 92 138 222 228 273 201 183

GFSNE_con_3kmhel_045.txt.gz
Helicity
86 83 87 98 112 119 131 137 136 137 136 123 129 137 114 95 49 75 70 21 9 21 52 61 54 39 38 51 59 67 78 94 116 130 128 147 152 163
91 96 102 119 127 139 147 161 184 185 279 202 171 123 99 93 58 49 51 35 48 51 42 25 25 31 30 32 37 48 58 58 66 70 70 70 66 73
103 112 118 127 136 149 169 185 192 182 217 225 184 135 101 75 70 79 77 119 125 37 29 14 11 2 -8 0 1 -3 -8 29 50 52 50 48 35 32
114 128 122 135 130 146 168 159 155 153 194 176 153 154 107 70 79 105 139 90 104 76 41 15 33 -1 -8 -6 4 9 2 -3 -16 -26 6 50 50 43
117 113 112 124 135 145 136 132 130 141 143 187 190 204 131 121 129 97 84 63 99 89 46 64 60 31 19 14 5 -5 -11 -17 -18 -4 -1 -13 11 51
107 108 119 130 132 114 95 110 163 174 152 168 201 168 142 110 112 81 63 89 97 114 114 76 90 70 68 65 46 23 -2 -8 26 14 2 8 8 6
107 115 123 115 61 96 159 183 162 148 159 191 150 112 124 105 70 84 130 116 120 124 93 71 172 182 195 119 87 47 38 48 56 58 58 22 13 8
112 114 116 75 86 100 122 99 92 101 112 120 119 119 102 90 106 131 129 -1 34 113 110 144 176 192 197 199 127 85 57 31 37 45 49 45 11 15
114 111 99 113 116 132 96 70 60 61 76 98 103 100 48 104 108 80 106 121 163 180 103 107 188 200 212 253 172 100 42 59 53 39 44 60 52 -10
97 83 105 113 110 88 106 127 80 76 85 86 83 108 105 95 81 113 124 113 195 176 115 172 205 205 219 313 186 83 99 70 48 40 44 46 45 49
85 86 108 106 75 47 101 97 73 67 69 34 51 47 27 24 59 127 136 133 144 126 165 121 186 198 224 332 241 170 144 97 67 43 33 28 15 7
103 114 94 92 41 41 78 83 83 64 65 64 68 57 40 47 48 84 114 124 124 107 129 133 162 124 100 257 293 253 220 148 94 79 51 33 32 72
139 122 117 44 28 34 28 74 74 55 39 63 59 60 64 70 74 75 77 112 125 177 228 86 183 180 170 259 323 280 225 252 225 147 80 72 78 80
118 111 93 32 28 29 48 35 13 27 68 61 67 96 91 100 115 111 91 118 145 183 185 153 213 164 210 263 316 254 244 222 185 158 200 191 116 69
117 64 41 40 37 54 34 14 30 67 69 78 91 111 119 128 130 114 122 117 140 172 170 140 150 163 180 272 295 213 196 230 126 181 176 194 162 138
90 102 73 63 50 46 47 59 66 73 80 92 114 125 123 112 120 104 114 111 116 163 140 112 78 78 139 175 133 196 237 198 237 186 190 175 141 80
97 109 86 66 57 53 62 73 79 83 92 103 116 117 114 102 115 79 100 103 115 137 139 132 95 86 106 159 143 190 237 223 179 177 175 177 146 90
107 88 71 66 61 64 74 90 98 93 111 118 118 124 120 116 96 43 70 107 121 129 114 114 103 102 111 108 123 164 166 214 222 152 137 143 138 118
86 66 71 63 80 91 111 116 134 139 131 134 137 145 142 141 62 76 60 114 133 119 126 66 73 56 95 132 161 49 170 208 205 144 94 152 128 107
53 57 61 76 103 116 123 136 145 140 139 146 153 143 145 144 145 132 76 119 123 112 88 55 55 59 75 88 143 152 91 178 159 149 110 153 121 68
-8 40 67 108 124 133 146 154 150 158 139 155 161 159 153 142 162 136 124 45 8 20 62 67 77 77 55 37 32 72 64 117 143 130 153 121 131 136
19 64 101 125 138 149 156 156 163 164 165 160 163 168 167 159 159 127 84 65 48 34 56 70 59 26 -19 -6 36 61 59 90 109 147 165 120 98 88
55 89 118 143 161 167 161 161 169 189 185 177 174 179 173 166 152 132 103 78 59 24 22 38 26 -1 8 8 18 32 41 50 81 118 132 175 160 165

GFSNE_con_3kmhel_048.txt.gz
Helicity
102 100 97 106 111 112 122 128 123 117 135 143 136 208 186 161 129 107 95 50 53 51 37 38 37 30 30 28 33 45 56 61 68 71 65 76 49 52
101 102 106 113 115 126 133 146 157 162 229 202 200 188 163 160 99 82 93 65 43 24 28 34 30 26 12 2 10 7 11 12 9 10 21 41 38 45
108 110 106 116 125 133 148 165 184 199 221 216 195 150 118 101 109 118 107 85 103 46 31 8 8 -8 -11 -12 -16 -16 -13 -10 -3 6 11 20 31 15
114 108 110 130 130 144 166 183 204 191 211 194 162 141 123 95 99 75 96 86 79 40 22 9 16 7 3 -21 -21 -4 10 24 18 30 22 14 9 21
101 110 125 132 133 163 177 197 199 179 162 174 179 160 139 112 95 96 68 62 62 33 12 22 23 1 -28 -24 -13 -5 -8 -24 -32 40 39 42 33 25
110 116 124 129 145 165 177 168 173 155 147 168 178 186 140 107 91 82 66 59 73 57 71 26 12 38 29 40 29 21 8 13 47 56 50 44 37 41
105 115 127 143 128 152 185 156 148 156 151 178 189 153 109 89 64 53 32 72 74 71 101 88 83 135 148 94 73 52 54 51 47 45 40 37 38 32
107 120 136 142 152 129 121 94 102 120 136 164 138 121 76 72 62 29 62 56 81 66 72 168 115 159 190 175 102 72 45 19 33 47 45 43 42 40
110 134 163 167 130 135 107 66 89 59 66 106 98 87 80 70 74 61 68 113 143 148 90 169 130 175 166 174 171 117 43 34 49 56 54 48 41 34
125 138 133 122 118 102 110 129 100 77 70 92 74 70 82 99 75 52 64 82 133 125 79 123 106 137 158 223 131 67 85 59 38 45 49 34 30 36
117 102 109 89 88 76 109 103 77 58 56 41 27 29 24 10 40 94 98 79 92 104 116 70 87 115 108 227 160 77 78 48 45 56 43 39 39 39
118 111 93 102 75 61 85 83 77 54 47 54 53 50 45 44 36 81 115 118 116 90 111 72 91 61 110 189 198 167 177 97 47 40 19 13 20 79
132 117 104 81 48 42 35 66 74 52 41 57 62 59 58 63 71 76 99 129 142 171 208 85 124 93 130 139 172 174 174 164 119 83 68 67 47 51
113 95 100 51 39 31 46 43 25 36 78 77 74 77 78 89 93 88 82 111 145 173 167 136 199 132 53 113 140 88 117 138 144 112 133 152 117 73
103 76 35 48 34 48 40 24 43 76 77 85 86 93 106 109 94 94 87 94 110 136 152 144 142 109 47 88 155 191 59 206 157 140 117 150 145 163
94 89 66 51 43 43 48 62 77 79 84 90 99 108 107 95 101 94 87 79 90 134 116 110 110 65 71 88 88 128 102 151 239 174 159 155 167 159
87 92 82 64 62 58 63 63 69 70 78 88 106 106 103 98 113 101 100 52 89 91 116 108 94 51 57 84 140 113 150 186 177 157 158 121 126 112
95 91 72 65 63 61 59 60 73 75 89 95 101 107 111 114 110 113 107 68 51 57 92 98 61 65 70 73 60 130 148 143 124 128 128 89 113 95
94 71 66 66 67 68 77 89 111 118 105 108 109 121 116 112 81 119 102 100 61 66 78 71 31 16 55 93 119 111 134 105 111 111 95 87 132 125
62 50 61 65 64 75 90 109 126 127 121 120 131 122 127 119 117 125 118 65 31 44 50 47 21 4 16 73 128 162 58 58 53 92 98 101 128 107
-0 -13 58 62 75 94 113 126 121 142 128 134 138 137 134 121 131 130 123 42 20 29 45 55 69 59 23 28 42 61 56 2 2 55 83 74 100 63
-21 -8 57 73 94 113 132 135 142 146 141 139 141 148 150 147 151 137 126 80 15 16 49 50 63 27 -1 5 48 63 43 30 2 28 18 33 57 72
-5 39 73 94 122 130 137 145 156 164 155 158 165 175 180 172 157 132 102 8 3 26 13 29 33 13 -0 12 33 59 34 10 8 25 25 27 44 71

GFSNE_con_3kmhel_051.txt.gz
Helicity
104 97 104 119 129 129 143 149 156 167 164 147 162 251 237 225 194 182 142 42 34 44 45 47 54 57 46 44 39 25 29 18 18 24 17 20 26 42
108 115 128 133 134 145 149 154 175 188 239 231 227 232 208 216 141 99 89 64 65 35 31 38 45 35 25 21 12 10 4 1 0 1 4 5 8 12
115 124 121 115 137 147 152 173 196 206 235 246 239 237 176 142 124 96 116 105 113 66 20 23 19 11 9 -2 6 5 2 4 2 4 16 20 22 24
124 118 110 128 138 136 165 187 211 210 226 210 223 184 132 127 93 113 109 151 102 57 20 14 8 8 12 9 10 -8 -23 -18 -13 -9 11 21 12 17
104 111 116 123 133 165 191 209 211 232 233 238 218 170 161 134 101 134 96 105 106 42 19 13 0 2 -7 -9 -13 -19 -10 -9 -7 -12 -19 -7 25 14
96 107 114 135 153 188 212 209 221 231 204 201 191 181 147 124 114 106 106 88 84 84 58 52 29 32 38 4 4 12 3 -7 -6 -11 23 39 30 25
98 111 137 166 150 151 198 198 186 194 184 179 172 161 120 108 98 94 92 93 105 100 99 132 132 168 154 84 52 38 22 13 8 -7 -3 11 20 25
118 135 145 150 174 179 152 133 119 133 129 142 149 134 112 108 97 86 91 100 87 82 86 169 130 174 157 141 62 47 39 23 2 -7 8 32 44 50
114 136 159 171 168 191 157 111 105 48 33 93 117 115 111 82 102 130 103 107 123 141 88 151 141 158 117 118 97 132 78 27 3 -1 11 46 60 70
118 127 147 159 163 152 165 141 129 96 90 102 105 109 100 114 133 122 114 131 142 145 116 149 134 121 102 164 109 58 66 65 21 3 -8 15 42 50
116 137 156 156 120 116 135 137 105 91 64 41 43 26 21 14 43 111 129 128 146 146 158 139 123 139 112 163 150 129 133 108 18 -9 -13 -12 15 20
150 134 110 127 126 96 114 110 101 87 77 59 75 66 61 64 25 73 119 146 150 146 153 127 112 91 75 208 186 180 160 81 11 -12 -34 -17 13 77
140 146 156 94 81 54 61 84 90 77 61 84 85 87 86 84 91 95 99 129 145 177 155 87 141 124 156 137 145 202 144 99 56 37 57 54 54 40
142 143 126 54 41 41 51 45 38 47 99 98 96 100 104 101 106 100 98 122 156 177 156 135 197 163 165 109 151 173 141 90 22 26 80 159 72 34
138 92 38 34 36 52 41 35 50 92 95 100 111 117 127 127 120 124 119 124 121 148 159 123 177 156 163 130 156 192 78 84 47 94 115 143 120 144
105 93 69 40 41 48 58 71 86 91 95 106 114 137 140 123 124 120 123 126 128 154 126 131 106 103 113 107 88 127 94 44 115 89 68 93 118 145
86 112 97 78 68 65 72 79 86 99 108 123 134 139 136 128 127 124 130 132 133 90 52 89 90 105 99 68 88 98 98 95 65 72 29 92 105 107
117 105 89 67 60 66 74 84 106 97 120 129 139 139 139 135 133 132 119 130 143 125 30 13 37 33 44 30 0 47 54 77 81 62 44 80 119 82
116 100 69 59 67 77 87 103 124 131 127 145 143 152 153 149 100 130 132 123 116 106 67 24 -8 -17 16 85 125 45 -12 77 73 73 42 90 112 119
94 68 52 62 73 86 108 127 144 150 145 140 147 147 151 153 146 134 111 112 99 93 61 24 -7 -12 10 68 137 193 58 24 -1 28 40 81 107 110
60 45 23 72 85 109 133 147 152 163 137 148 158 163 170 169 168 148 100 -17 -25 -13 30 52 40 37 16 9 37 62 66 16 -24 -8 53 67 66 44
40 -7 25 87 104 131 151 157 165 167 163 169 175 178 178 182 181 160 147 17 23 30 97 72 27 41 12 1 40 46 48 26 -18 22 49 73 41 29
5 11 78 107 128 151 158 168 177 182 185 196 203 204 203 198 185 171 130 93 76 46 -12 30 54 24 37 40 23 35 34 -6 -25 39 70 31 22 29

GFSNE_con_3kmhel_054.txt.gz
Helicity
97 111 125 138 145 148 156 159 173 181 142 153 135 156 157 156 158 148 154 111 86 71 82 78 58 59 44 36 29 34 30 22 22 18 11 6 2 2
109 127 144 140 147 145 147 157 180 205 234 224 197 196 171 174 141 136 142 74 61 47 43 44 29 33 37 14 11 16 15 21 26 23 20 15 16 17
128 135 127 130 133 143 150 163 188 205 212 219 216 198 206 177 161 161 128 133 118 55 20 21 18 22 3 9 22 13 13 19 22 23 28 20 30 28
129 124 118 143 143 144 159 169 193 205 220 205 234 217 191 162 153 144 128 124 85 46 27 4 12 10 9 9 1 12 16 26 38 32 28 22 18 13
102 110 123 129 140 153 169 196 197 204 229 244 232 202 187 168 147 143 109 107 107 39 23 19 22 15 19 18 15 15 11 8 11 17 23 25 22 20
103 117 123 129 139 157 164 183 191 208 206 228 228 198 159 131 141 125 109 113 95 107 67 46 38 37 37 45 30 36 28 12 -1 -3 7 21 25 25
104 113 131 135 119 135 188 214 207 207 209 199 182 165 136 129 110 129 133 115 119 100 104 139 109 143 129 69 79 79 59 33 11 6 10 13 22 29
100 105 119 125 140 148 159 155 149 170 168 169 163 145 124 126 134 140 142 125 138 104 100 137 127 129 143 131 80 70 65 46 36 30 13 10 16 18
85 106 131 147 140 181 172 140 143 90 81 110 120 121 114 127 142 156 160 141 138 134 124 128 141 127 136 126 83 119 108 74 50 39 29 16 10 9
95 113 131 145 161 171 190 197 172 148 126 122 108 112 118 98 108 122 123 139 135 130 120 154 161 141 109 140 133 61 91 121 106 73 38 17 6 -3
108 118 124 160 145 108 177 165 142 128 76 27 27 25 26 15 49 107 113 121 138 131 141 135 125 120 89 134 135 110 180 184 142 86 39 4 -21 -20
107 129 92 117 104 92 131 134 125 82 85 85 79 70 68 101 38 92 118 142 149 136 164 129 116 83 32 160 165 183 189 193 144 101 14 -12 -22 -18
125 127 139 80 71 64 65 103 81 69 63 80 89 108 114 111 119 116 108 133 148 173 181 113 160 123 122 83 144 171 193 220 178 98 42 -2 -2 -2
127 144 134 70 63 54 68 41 31 44 76 94 108 120 129 133 124 122 121 134 158 170 167 153 193 84 15 44 101 139 183 173 79 52 9 30 48 53
142 98 72 65 61 71 45 37 48 78 96 102 113 125 133 151 140 127 121 134 132 163 180 144 142 75 65 57 69 118 99 148 75 26 29 67 63 91
110 121 88 71 65 57 54 61 81 92 88 100 120 131 142 137 138 136 134 132 134 143 144 145 129 94 67 121 94 81 81 50 100 57 50 108 38 130
99 124 110 107 74 61 65 78 94 106 109 121 128 133 143 140 150 137 139 127 118 93 104 115 115 126 141 100 52 53 32 80 55 38 2 47 105 139
126 124 108 84 64 60 68 85 109 107 138 140 145 150 151 155 148 141 140 120 125 48 11 56 37 63 67 47 -9 -21 37 51 50 27 27 31 104 119
132 116 95 67 66 77 96 115 136 157 143 149 153 165 177 180 121 151 145 148 120 22 28 83 35 26 50 100 90 -36 -29 38 34 51 3 44 80 98
122 102 71 67 63 90 108 124 153 161 156 152 171 174 174 172 170 165 156 139 91 36 57 55 33 42 16 31 124 180 28 -4 -25 18 22 54 100 88
90 71 72 72 92 106 126 150 162 175 144 157 185 189 188 181 183 177 152 58 34 30 59 80 66 44 25 29 39 76 69 16 -19 -37 -18 44 71 81
58 65 29 76 108 125 147 167 184 183 177 192 206 211 221 214 194 147 107 101 93 76 90 91 69 53 37 21 84 100 94 65 47 21 24 44 75 96
55 36 59 95 120 145 161 184 196 200 197 219 226 236 236 222 182 154 148 128 110 105 70 85 79 55 67 80 82 93 72 36 19 31 66 53 32 15

GFSNE_con_3kmhel_057.txt.gz
Helicity
109 124 139 143 161 170 182 177 163 153 119 134 111 118 94 99 107 128 145 106 101 118 135 138 112 109 98 75 78 50 37 32 27 15 14 12 12 15
115 131 129 144 161 167 164 161 174 193 227 216 174 146 128 137 128 133 142 106 108 93 92 89 74 59 80 48 28 26 17 16 17 19 19 18 19 23
125 120 131 151 156 158 152 153 166 195 200 203 199 176 196 171 170 166 145 156 137 63 53 38 53 50 37 38 32 29 23 31 29 40 41 42 47 50
114 129 137 140 138 134 147 153 178 186 202 170 178 184 189 177 171 177 171 156 127 63 27 29 28 33 27 31 41 33 40 41 50 38 31 44 55 62
120 133 117 126 128 141 151 162 184 182 195 219 210 203 208 157 166 167 169 133 133 58 30 30 33 28 41 46 50 53 38 36 42 35 31 29 32 39
146 134 119 120 126 132 147 156 165 178 193 215 234 221 161 132 145 159 121 130 126 104 74 46 23 65 58 58 54 51 57 62 42 32 16 20 24 35
133 124 123 118 110 123 160 173 182 207 228 233 233 192 154 150 144 124 134 131 119 91 89 120 126 145 126 78 58 55 72 80 66 37 29 21 19 23
115 118 118 111 110 109 123 131 154 180 215 225 209 169 151 129 126 127 147 130 114 73 122 109 123 137 132 128 48 53 80 68 70 59 43 31 24 27
109 110 114 125 143 157 151 136 141 134 116 148 154 139 125 119 131 140 137 135 128 124 122 134 122 127 145 115 65 68 76 87 77 78 68 55 33 29
98 102 116 122 143 160 192 213 195 159 140 151 131 120 119 104 97 101 101 128 143 133 124 161 142 134 115 139 75 24 68 111 116 113 76 59 33 19
89 109 124 144 136 121 172 194 169 151 109 35 30 34 37 25 51 108 117 125 133 126 122 138 147 134 109 109 91 47 143 153 156 125 107 83 49 24
112 116 104 135 124 111 153 157 149 114 107 81 78 63 62 83 49 103 140 147 146 122 144 149 119 100 37 135 137 136 172 178 147 144 118 78 47 21
89 106 132 105 103 107 104 138 118 82 86 63 45 65 75 89 103 111 130 136 136 157 153 99 146 135 150 119 112 130 146 196 193 177 142 77 24 -18
107 124 138 88 105 93 112 84 62 71 67 65 72 86 98 112 117 113 112 125 150 150 147 133 175 149 150 137 57 101 141 168 139 154 80 47 25 -16
131 93 98 105 103 109 73 57 62 84 83 84 93 105 120 134 121 121 122 130 134 151 161 153 161 144 153 141 41 88 77 112 76 18 10 -3 -14 -34
108 114 102 105 89 69 61 76 98 92 86 102 119 132 126 127 127 124 124 123 119 144 142 148 131 129 120 133 58 49 55 30 71 83 23 -1 -19 -37
111 119 106 103 92 65 68 76 89 98 106 108 118 124 126 124 136 133 140 141 130 131 111 131 133 143 156 128 51 53 49 79 88 65 -2 -2 -13 -1
133 112 97 86 64 59 59 70 102 93 113 117 131 136 145 153 147 136 143 136 144 137 69 40 24 19 29 79 51 83 123 85 80 31 -17 -37 39 41
117 105 93 69 59 66 71 99 116 125 125 136 142 166 175 178 123 164 160 153 160 96 93 65 25 -11 58 124 101 54 -2 85 44 30 -6 -10 2 56
114 105 76 62 62 66 96 112 127 139 138 146 171 173 183 190 183 159 142 117 103 111 116 68 43 65 69 109 161 192 92 17 25 23 30 0 37 64
94 83 59 59 62 93 113 125 147 155 133 161 185 193 203 195 199 183 172 123 86 106 127 122 117 86 66 78 121 164 143 83 -15 -37 -37 -20 12 75
76 56 44 32 85 112 128 148 159 161 169 188 203 215 215 202 202 192 183 183 174 162 174 180 158 126 117 108 135 143 131 78 63 11 -12 -44 12 121
54 42 52 68 115 127 137 159 163 172 189 205 212 218 218 213 191 188 195 187 190 180 134 116 142 122 135 116 89 111 105 78 38 46 93 58 47 20

GFSNE_con_3kmhel_060.txt.gz
Helicity
206 145 124 134 150 153 171 186 182 150 138 133 112 108 81 69 71 91 101 95 115 128 139 146 136 149 135 105 129 101 116 84 50 66 46 35 25 21
129 110 148 141 139 159 176 191 191 197 221 193 166 130 108 115 101 122 140 132 131 121 132 125 113 100 96 102 84 80 63 53 39 40 32 33 32 30
129 137 116 127 146 162 191 184 188 212 224 211 200 176 178 158 169 176 175 193 185 109 109 96 81 88 84 69 67 56 55 53 41 41 39 50 45 52
92 96 112 134 143 168 164 162 178 172 216 175 200 194 188 177 185 168 214 209 203 124 85 62 59 61 53 60 63 71 67 62 70 64 50 45 50 61
117 127 134 148 153 151 154 155 165 173 198 210 189 212 207 192 156 187 197 180 169 79 47 47 60 55 51 59 64 66 63 68 66 58 41 45 50 52
152 134 148 133 126 134 141 143 160 187 193 194 209 219 213 149 175 201 195 151 141 118 92 49 37 44 66 62 61 55 57 66 67 49 34 33 36 38
137 152 147 140 124 125 153 159 180 195 193 225 219 243 187 179 200 178 157 131 117 114 103 87 117 127 150 103 71 57 65 73 77 58 31 29 27 37
145 157 157 155 161 160 149 143 149 185 227 244 225 210 201 177 163 147 140 115 78 74 104 88 104 126 133 128 48 40 48 57 68 65 50 35 37 33
136 137 140 135 132 145 140 133 176 153 140 185 208 184 166 139 144 137 121 112 112 108 105 106 119 118 124 116 46 45 38 55 69 69 71 60 55 41
108 109 117 113 122 106 159 206 206 175 161 178 164 150 139 118 110 102 89 112 130 124 110 130 116 146 118 135 69 1 13 49 82 96 87 65 32 28
104 107 104 98 93 122 178 205 186 166 133 68 53 45 51 44 55 108 120 116 121 115 102 103 119 126 118 119 73 2 45 64 84 97 81 55 30 31
93 86 87 125 133 134 182 186 180 149 134 108 99 66 70 89 49 107 134 135 125 95 92 130 113 92 34 128 84 169 131 98 55 66 53 43 37 64
75 90 120 131 130 141 133 170 142 100 117 69 74 85 89 95 104 115 125 142 127 159 148 99 154 134 149 167 107 105 132 139 135 109 69 62 71 86
95 118 138 100 128 119 135 97 77 82 80 77 81 90 100 106 100 105 107 113 140 146 131 131 183 159 153 135 22 71 121 148 126 128 139 106 74 32
132 111 134 126 122 118 80 73 66 85 85 90 95 110 121 124 113 114 113 112 139 146 151 143 171 147 155 -22 -2 43 50 123 110 84 87 107 -4 -22
117 146 136 124 109 88 75 70 87 88 85 100 116 121 119 124 133 147 143 123 119 133 145 137 129 100 22 59 69 93 69 52 96 56 47 3 -7 -6
158 135 121 113 105 88 66 71 79 85 96 108 116 120 131 144 165 165 172 164 162 133 114 126 99 103 109 104 62 118 71 63 89 92 56 49 34 23
153 132 110 94 83 59 53 62 88 79 109 116 124 147 167 165 165 161 151 140 128 117 102 98 60 39 52 103 128 130 154 140 120 90 70 30 44 4
138 115 97 81 58 56 62 80 99 117 120 135 149 163 165 169 128 175 172 178 183 167 182 159 128 100 96 153 143 112 105 140 89 71 29 10 11 36
117 104 87 59 49 56 79 97 112 126 135 138 152 151 160 174 177 182 188 191 194 199 204 162 144 145 154 207 247 264 108 56 60 62 42 1 5 3
99 93 58 43 55 64 97 115 130 147 118 125 156 168 179 182 203 205 208 148 127 174 191 179 165 115 131 137 186 218 167 102 82 41 11 -10 11 64
76 55 37 39 60 91 110 121 133 138 138 150 179 183 191 195 217 209 205 202 212 211 219 225 184 149 150 141 186 181 180 142 135 95 79 41 82 137
36 28 62 65 81 99 113 128 131 146 158 173 193 191 186 197 214 209 207 224 211 178 149 171 178 167 173 159 160 181 176 147 110 116 129 95 117 109

GFSNE_con_3kmhel_063.txt.gz
Helicity
308 344 203 201 175 132 129 136 142 149 149 165 145 122 120 94 77 81 73 58 72 97 105 129 138 130 140 141 145 146 134 87 74 68 50 53 48 48
241 290 233 168 124 106 123 145 151 165 194 166 157 157 132 121 94 92 95 80 97 120 125 134 130 136 136 132 135 94 87 67 64 56 45 44 44 40
255 182 199 137 116 113 123 136 151 198 218 210 195 181 170 140 124 136 131 157 170 116 138 146 145 133 130 99 84 77 62 74 62 66 59 56 45 56
224 156 155 150 136 114 132 144 172 175 210 177 196 183 161 150 156 158 155 150 180 148 126 130 127 112 91 83 80 73 86 79 77 79 66 46 44 51
144 112 139 120 123 133 145 147 162 171 188 207 175 173 174 175 174 166 167 182 195 132 109 112 94 97 90 82 72 68 61 60 62 63 55 39 33 33
124 103 115 128 146 154 135 132 151 171 172 176 182 193 196 164 180 169 198 183 183 153 110 70 56 65 71 69 57 48 43 49 61 67 65 57 41 38
113 125 145 141 128 122 138 139 154 173 180 192 185 210 183 159 178 187 197 188 149 115 135 97 125 153 157 88 75 52 52 56 54 60 67 58 42 37
136 144 120 136 146 135 127 126 135 184 196 198 224 188 181 188 181 175 185 158 115 78 137 128 110 127 151 127 45 24 34 43 50 53 58 55 57 54
88 104 121 118 127 125 116 127 167 140 140 172 189 177 190 159 165 160 135 133 147 140 118 126 115 134 138 104 35 38 42 35 43 55 57 63 71 65
95 97 99 102 102 107 142 174 168 146 151 179 186 170 158 127 110 112 114 132 154 145 115 149 111 143 104 116 60 18 11 25 47 54 71 81 61 37
97 99 80 91 96 109 129 157 160 155 148 97 83 59 47 40 62 121 133 136 136 133 124 112 132 102 100 92 24 -16 5 37 61 60 69 75 62 37
87 89 107 112 86 89 161 169 178 163 151 123 99 60 62 78 53 115 145 153 141 122 107 135 131 81 22 81 76 142 117 68 37 39 48 39 32 56
85 96 106 86 93 122 137 181 159 123 123 75 70 83 90 99 107 121 137 164 172 230 187 136 189 142 162 149 144 149 139 123 146 132 62 -14 -12 -2
84 93 105 91 122 128 152 128 106 97 72 68 76 91 105 112 117 129 136 159 197 207 163 149 207 165 139 65 19 82 141 179 175 141 124 34 -8 14
100 108 134 134 138 144 117 105 87 70 63 72 85 109 123 137 136 143 154 161 173 177 171 136 127 86 90 100 107 139 55 154 154 80 50 47 32 128
132 149 145 141 133 114 101 80 65 61 65 82 102 111 124 137 141 148 163 151 157 167 160 137 112 118 125 146 144 173 143 159 170 102 35 10 -14 -29
161 145 141 137 132 114 85 64 60 65 79 94 106 115 130 137 153 150 175 176 206 194 175 137 129 159 189 145 136 183 171 127 122 94 37 59 48 36
171 155 136 116 97 75 49 53 69 58 91 101 117 134 144 141 151 157 166 188 192 194 188 184 161 127 119 150 196 201 219 197 178 143 116 83 83 48
162 143 113 82 64 42 44 57 83 98 106 127 134 148 149 166 128 179 177 185 203 206 224 229 220 213 189 223 224 164 182 258 177 131 114 78 55 71
150 121 73 50 33 38 49 79 94 100 114 126 143 146 163 176 176 185 189 186 192 207 220 197 196 205 213 255 275 290 160 151 159 150 165 145 149 127
111 68 36 26 50 55 75 93 109 117 102 114 141 158 172 169 191 193 199 134 113 178 193 206 203 132 161 177 231 283 239 155 156 141 112 81 91 61
48 23 35 66 68 72 86 104 114 108 126 142 159 181 191 202 217 199 196 195 197 215 250 265 219 184 192 196 248 299 330 273 204 132 107 92 93 149
19 59 66 77 80 86 107 115 114 128 140 153 170 185 188 224 233 234 233 220 213 194 171 195 205 185 183 179 205 257 260 243 236 204 147 112 108 102

GFSNE_con_3kmhel_066.txt.gz
Helicity
334 330 255 348 302 199 233 187 164 172 150 131 125 126 116 136 98 89 74 44 46 67 56 63 87 115 135 138 154 134 129 151 120 123 104 85 79 74
374 342 348 296 278 212 171 170 169 175 182 113 133 146 140 126 105 97 102 62 68 82 84 105 130 145 132 118 118 119 112 92 87 81 77 74 81 64
393 346 353 291 282 217 187 131 125 134 159 156 172 162 152 132 127 142 132 144 142 83 112 136 160 153 127 142 126 111 104 81 81 72 87 83 76 49
275 381 262 272 250 183 139 110 105 112 137 140 150 142 133 128 129 128 123 136 157 111 93 128 148 118 113 101 94 80 76 88 77 69 61 44 35 29
358 330 262 226 121 99 105 107 116 137 142 159 148 133 133 127 131 143 165 165 166 100 81 115 129 105 99 88 83 92 76 60 52 54 48 34 20 18
311 288 262 136 103 94 82 96 118 132 139 151 155 159 137 112 160 161 157 172 166 154 110 85 51 63 72 65 74 70 57 43 40 37 28 26 27 26
176 124 75 55 63 91 110 106 121 135 144 150 141 154 153 134 160 166 185 163 151 117 122 128 141 165 186 123 97 63 54 49 44 40 38 37 42 32
61 57 67 100 124 126 127 98 100 123 132 149 182 172 175 173 175 167 169 141 134 106 138 164 138 164 183 151 56 32 41 43 50 54 55 58 54 44
66 79 96 102 106 96 76 88 107 98 132 179 178 166 178 154 152 149 123 140 147 153 140 183 144 178 145 128 34 30 32 38 43 53 61 55 52 52
69 76 77 74 71 74 97 111 120 138 168 165 174 153 152 126 118 111 114 144 166 155 160 224 161 182 150 151 44 -26 2 21 34 43 46 64 70 59
71 65 58 65 65 58 108 138 141 150 129 88 81 65 46 33 63 114 132 140 146 151 165 169 214 200 184 127 33 -32 -9 40 57 51 41 51 59 59
68 63 67 74 69 85 150 156 153 133 131 120 110 70 67 71 54 111 150 153 157 153 184 262 237 195 182 249 210 184 129 72 37 41 46 48 53 87
60 63 75 91 117 134 124 157 135 114 119 81 63 69 78 87 100 115 140 189 178 224 230 185 317 245 303 295 273 240 201 177 180 133 59 5 -29 -56
63 86 106 111 113 109 135 114 104 112 80 57 57 76 92 100 112 122 123 142 196 222 188 174 287 261 273 272 275 237 206 234 174 129 89 32 -21 -33
99 108 116 126 134 138 119 117 107 72 42 46 60 85 100 117 129 135 136 149 180 198 190 187 222 206 234 268 273 260 173 189 142 97 77 51 36 -22
125 142 141 140 132 116 110 90 55 30 33 52 76 88 97 130 128 139 148 138 137 152 162 175 188 218 237 230 246 285 231 204 149 116 85 66 51 39
147 142 155 148 140 117 86 53 35 41 55 73 80 84 104 110 131 130 155 153 172 172 174 174 176 216 260 220 182 242 229 222 234 212 141 110 103 103
173 162 146 119 84 42 20 36 51 53 84 81 93 117 128 135 135 135 141 153 172 187 188 198 176 169 181 209 249 300 327 303 276 232 194 157 169 133
165 131 89 48 17 3 20 50 77 96 100 109 125 143 151 167 125 176 170 171 193 202 222 208 190 177 175 219 254 240 286 297 247 230 221 211 163 159
120 71 25 -4 -4 31 54 74 94 97 101 118 141 139 147 161 169 181 184 183 196 206 209 186 176 186 184 202 205 305 180 276 306 324 274 240 241 198
55 9 -3 9 34 55 81 99 112 116 101 113 133 156 160 153 174 193 206 135 116 186 193 196 199 128 181 174 168 226 159 140 162 159 171 249 234 175
19 2 18 36 52 83 96 108 119 124 128 136 151 158 157 156 184 187 199 203 206 210 236 241 177 154 167 150 131 114 110 94 87 102 89 135 192 274
3 17 40 57 73 90 99 114 130 145 151 154 166 172 164 169 187 194 207 214 219 209 192 181 144 128 130 107 62 88 115 115 87 99 172 68 72 120

GFSNE_con_3kmhel_069.txt.gz
Helicity
325 314 356 395 413 390 344 270 276 325 221 198 203 141 87 116 110 102 81 63 53 53 56 46 53 67 68 61 70 94 114 107 127 137 138 139 151 132
372 373 378 405 438 306 313 340 339 304 339 150 123 117 103 100 95 90 85 65 64 60 52 57 84 85 74 67 77 81 79 101 111 111 104 90 100 105
431 443 446 445 527 315 333 246 223 284 202 163 141 107 107 97 96 100 99 100 91 68 77 98 107 102 106 105 93 85 79 93 79 65 57 75 78 99
525 543 558 481 520 266 221 162 154 116 172 122 104 90 89 80 80 78 78 92 98 77 73 116 122 107 92 86 71 66 62 68 83 82 75 66 64 56
411 403 338 267 199 162 115 119 112 95 78 93 79 82 87 62 58 75 92 100 111 80 89 101 70 62 51 42 58 67 64 54 56 53 50 44 42 31
321 302 255 192 154 116 79 90 93 91 81 85 84 92 82 81 92 85 103 109 118 97 87 50 39 37 36 61 69 64 65 66 59 55 55 46 35 31
268 236 142 98 76 53 66 65 64 80 83 92 102 105 99 93 107 116 119 119 122 95 70 64 96 106 127 91 73 64 70 73 76 75 65 50 47 46
173 95 54 82 70 65 55 45 63 88 102 112 110 91 110 128 138 132 126 148 131 58 74 89 107 102 94 84 56 51 47 47 44 51 59 58 55 43
75 63 75 50 68 63 68 92 99 90 97 119 128 133 137 121 128 131 108 88 89 123 96 106 98 88 83 102 58 45 25 42 58 65 55 50 48 45
74 51 57 76 69 62 58 76 93 122 143 137 141 127 123 115 101 79 70 71 86 90 76 122 75 96 87 106 62 -10 -10 41 43 28 12 32 58 56
56 40 40 59 57 66 114 121 114 121 109 103 115 107 88 50 50 64 72 84 96 85 81 78 109 97 105 113 73 69 80 56 39 16 -12 -38 -53 28
50 66 80 75 79 105 128 121 110 103 121 142 147 112 66 43 39 70 77 92 97 95 120 139 122 92 97 169 156 193 136 89 54 47 27 -10 -36 -99
63 69 80 87 104 105 111 137 124 115 143 108 79 52 43 48 65 70 77 102 129 167 165 128 208 165 211 222 199 193 173 168 102 76 34 7 -11 -43
68 77 90 105 122 149 156 128 119 107 66 45 32 35 44 58 67 66 67 89 134 177 160 136 246 207 210 205 232 203 189 187 130 77 35 12 8 -9
86 121 137 148 148 140 120 102 72 40 23 22 31 45 59 60 67 75 84 101 129 154 162 141 174 173 191 215 230 238 167 166 110 83 72 56 41 -3
133 139 152 151 133 106 71 32 7 4 15 31 46 47 50 58 71 78 96 97 96 114 118 135 149 162 199 215 208 261 205 202 176 184 157 149 119 81
150 148 144 134 104 55 7 -12 1 16 32 39 38 41 50 55 80 92 118 116 125 141 132 145 141 160 209 190 207 212 220 239 255 242 193 207 165 132
142 126 104 63 18 -21 -22 -5 14 26 37 41 50 60 68 75 99 107 117 124 141 151 154 159 144 134 114 155 210 285 268 286 305 246 257 310 318 191
117 77 41 -9 -35 -23 -7 11 33 43 57 60 68 79 87 98 89 128 139 141 151 158 171 166 147 134 117 130 119 96 151 161 113 124 141 182 231 230
62 24 -17 -30 -19 -9 7 25 46 54 59 69 87 95 105 113 124 135 142 149 159 161 156 142 145 143 122 138 126 153 119 121 91 83 82 132 165 161
19 -10 -20 -14 -5 5 23 37 57 72 72 83 87 107 128 132 145 150 157 118 100 165 166 159 165 84 153 142 137 154 134 121 148 131 112 88 90 116
-4 -20 -15 -5 4 19 32 41 64 75 81 89 106 125 145 152 159 164 177 167 155 184 214 201 163 136 122 106 84 100 119 110 117 113 134 106 133 137
-16 -17 -11 -3 14 33 46 55 76 95 101 111 123 141 146 153 160 181 183 172 169 188 178 164 155 133 147 138 118 137 104 101 99 90 126 127 109 81

GFSNE_con_3kmhel_072.txt.gz
Helicity
315 322 384 378 382 395 263 294 340 365 316 397 277 299 205 233 159 142 119 88 69 51 42 44 60 62 61 66 62 55 56 66 86 118 129 116 140 148
406 421 481 449 427 390 434 452 447 490 580 549 385 275 225 152 139 99 79 108 52 48 33 51 62 63 61 38 28 43 72 78 65 53 45 74 96 105
437 498 520 348 385 388 420 390 342 307 361 260 206 136 141 94 78 84 83 84 87 51 38 63 74 64 57 65 76 97 83 70 56 67 42 39 41 55
384 375 359 361 297 256 303 282 290 209 226 184 131 144 105 116 119 100 120 105 101 68 66 78 76 91 89 89 106 76 53 39 38 42 46 51 53 69
318 271 251 220 222 219 211 231 194 152 124 135 150 119 95 89 80 84 87 80 83 60 92 120 115 117 88 81 56 35 37 43 50 58 60 62 63 59
311 262 242 206 183 195 247 227 131 138 100 104 107 102 95 72 83 70 85 85 80 101 120 107 88 77 55 55 32 33 45 53 67 78 82 82 74 72
281 253 202 202 224 163 123 91 84 98 107 104 104 92 93 80 92 111 100 114 118 125 149 115 98 86 81 61 52 46 54 67 86 86 92 83 87 99
163 186 158 150 99 85 77 61 67 71 77 105 106 85 99 127 128 125 126 141 169 107 112 81 62 71 71 61 35 30 35 51 66 66 82 90 103 107
128 143 124 112 87 72 71 57 51 63 63 100 107 110 120 122 169 137 131 144 124 61 53 60 68 61 57 59 34 46 40 41 65 81 91 87 86 106
108 98 85 70 73 65 77 80 73 77 110 131 126 125 125 119 123 113 97 75 49 55 60 69 52 57 59 87 64 26 20 47 77 86 93 93 72 76
70 64 62 71 76 59 77 96 94 113 116 109 100 93 88 69 59 66 50 51 63 67 61 47 59 72 93 114 59 44 77 61 69 63 43 54 54 46
53 53 59 72 81 108 113 119 123 127 132 137 134 98 53 37 35 53 77 84 82 77 84 89 87 65 66 129 100 111 89 79 58 54 38 51 54 98
63 73 86 96 111 119 124 128 118 116 113 93 60 36 34 46 66 79 81 102 116 154 128 103 155 135 178 205 174 158 139 129 103 82 37 26 54 89
71 86 102 110 125 137 135 129 103 70 39 13 10 24 41 54 62 66 64 93 127 138 121 109 189 154 166 174 199 163 177 152 104 96 80 54 41 39
93 126 131 138 134 127 115 77 27 6 -1 12 28 41 45 44 42 51 67 75 91 111 127 126 157 161 184 214 229 203 114 111 97 76 83 94 106 91
123 131 145 134 108 77 39 6 -7 4 19 32 43 41 41 48 57 64 66 63 66 79 107 117 147 173 180 186 201 212 168 146 135 122 87 103 138 163
132 137 131 107 70 20 -16 -13 2 17 30 40 44 47 49 56 65 70 84 89 103 94 96 114 126 157 211 196 175 177 163 151 130 98 89 152 180 174
124 124 98 59 10 -22 -15 -3 12 22 33 40 50 55 58 64 70 81 84 104 110 116 118 122 113 129 129 152 182 196 175 162 138 89 81 76 108 141
116 91 51 7 -13 -3 3 12 20 25 31 46 59 66 75 82 75 89 107 115 116 117 124 156 143 134 128 129 106 103 99 120 84 85 94 111 124 149
90 56 16 -4 5 8 12 23 25 29 36 46 60 77 89 97 103 120 120 122 133 138 132 121 130 131 123 129 135 138 132 153 148 113 97 91 120 106
69 29 0 1 5 12 24 33 35 40 44 53 63 80 95 111 129 138 132 85 89 140 145 135 153 84 142 170 183 161 159 140 131 132 112 66 64 72
47 10 -6 5 9 17 30 39 48 48 52 60 69 83 93 108 138 143 135 133 131 161 189 198 167 151 169 166 165 141 149 128 118 91 94 101 148 169
37 7 -3 3 10 24 35 41 49 59 68 73 80 82 88 97 128 145 151 162 163 175 164 161 167 168 181 174 157 166 143 119 57 45 102 98 114 126

GFSNE_con_3kmhel_075.txt.gz
Helicity
489 578 565 495 505 545 575 337 342 341 395 432 428 430 370 385 418 378 262 165 81 89 70 58 56 60 68 67 64 69 70 76 75 75 77 75 82 77
526 502 475 453 516 453 460 332 441 232 193 162 240 239 266 306 220 198 144 99 94 80 60 44 47 53 63 57 45 50 59 56 64 66 69 71 76 74
380 398 416 403 408 373 391 207 166 134 155 218 268 257 238 190 150 130 114 139 115 78 56 43 40 47 51 38 58 65 52 60 62 58 57 65 62 72
354 379 333 281 254 203 131 182 205 198 197 213 190 166 140 126 162 126 96 93 99 71 50 61 64 77 74 79 84 67 64 56 56 51 57 58 61 57
303 278 242 213 196 148 144 119 123 132 173 180 181 173 134 117 106 95 97 98 91 66 67 82 93 109 92 77 56 39 41 44 51 62 63 58 49 42
323 278 240 182 134 136 123 114 129 125 132 139 135 131 117 92 83 83 90 113 105 91 96 90 82 78 68 53 39 42 53 64 80 83 78 69 53 41
277 287 179 172 153 124 108 120 120 123 141 137 107 100 118 97 105 136 124 108 97 94 120 121 119 111 92 70 59 48 62 81 78 67 60 57 56 52
178 198 165 158 124 142 150 119 119 120 94 97 117 110 90 129 160 137 144 127 127 101 163 129 106 102 97 92 35 43 62 70 65 64 77 72 59 53
116 96 105 74 100 95 90 78 70 60 66 103 106 107 118 126 172 128 118 130 123 112 80 71 114 92 92 92 31 42 57 50 48 60 71 75 77 71
75 79 87 81 71 66 72 71 85 82 92 110 133 129 136 140 133 121 107 83 71 66 62 79 99 83 89 110 68 25 22 52 82 83 85 84 80 72
60 49 45 50 80 76 92 95 94 116 122 123 112 88 66 53 42 63 62 59 65 82 83 69 99 102 115 122 92 22 49 47 49 49 63 59 55 51
47 62 74 86 90 90 99 112 129 147 154 131 124 78 41 35 23 72 81 77 88 89 107 124 121 83 63 175 110 141 119 73 44 38 36 40 42 101
57 65 74 88 103 112 124 138 145 129 98 79 48 30 37 53 73 86 101 109 116 152 156 101 177 119 148 181 163 163 124 112 116 91 47 20 19 42
74 92 112 121 122 125 126 112 78 46 21 4 19 39 59 64 67 69 68 90 124 129 106 126 208 177 181 168 209 157 141 117 94 95 82 39 9 10
95 107 98 114 126 116 108 58 10 -6 3 24 36 43 51 55 51 62 73 79 89 106 117 130 172 194 204 209 211 168 114 111 100 68 77 56 51 73
115 119 126 117 101 86 50 7 -5 8 24 34 42 45 47 59 68 75 75 74 92 99 112 123 140 171 205 224 236 205 174 151 125 114 86 104 115 147
116 123 118 113 91 60 11 -4 8 22 38 37 44 56 59 66 76 80 89 90 108 89 81 91 106 128 200 228 227 233 174 147 165 177 148 152 125 146
118 125 118 95 57 25 13 19 21 27 36 45 48 52 56 68 77 93 108 111 108 91 106 110 113 118 138 174 171 200 194 199 176 135 111 93 85 108
112 127 107 83 47 26 24 22 32 39 42 58 64 60 61 80 68 100 115 117 111 101 127 135 130 134 142 149 152 141 164 179 147 143 141 146 121 105
129 117 105 74 46 39 36 34 39 48 56 61 67 75 81 83 91 110 123 125 122 126 137 122 129 157 167 136 140 188 151 171 187 189 141 93 84 79
123 119 97 73 50 46 42 40 47 54 61 73 83 89 95 98 99 112 124 85 61 130 152 159 174 97 148 157 199 218 198 199 192 174 145 98 81 50
119 109 95 74 58 60 56 54 56 57 67 77 84 92 100 110 112 106 125 137 140 157 180 202 181 188 180 181 208 187 180 176 160 158 140 135 128 162
124 108 97 78 63 62 65 67 75 70 81 92 99 105 112 123 125 121 134 159 157 164 160 165 164 184 189 174 155 184 139 142 125 88 157 136 140 142

GFSNE_con_3kmhel_078.txt.gz
Helicity
388 441 473 504 530 487 453 442 449 393 415 319 293 281 242 187 237 219 270 199 205 122 99 61 75 86 80 80 80 66 67 72 64 76 75 74 81 97
448 455 467 468 475 435 388 361 344 342 180 207 215 236 223 266 199 181 128 120 96 73 78 86 96 91 82 67 59 59 59 59 60 60 74 93 96 114
349 366 369 345 327 301 260 241 196 205 200 202 179 158 135 142 147 146 136 125 108 67 78 77 73 75 59 43 37 36 43 49 57 72 88 98 103 89
284 297 302 291 283 230 210 158 179 120 128 138 126 119 106 147 140 121 109 103 98 78 62 66 71 69 61 64 66 68 75 84 98 106 100 91 75 61
234 235 238 222 219 192 233 174 112 117 126 137 150 161 116 115 117 105 112 103 100 70 93 92 94 84 77 82 87 88 89 89 82 69 68 53 44 47
234 230 228 230 215 231 206 144 103 119 124 123 125 117 111 107 108 107 107 108 93 102 101 83 117 112 111 99 84 82 78 68 61 59 49 42 40 37
301 329 260 240 115 112 189 113 81 107 97 121 117 106 106 99 97 113 111 108 97 107 123 126 138 120 82 65 44 39 39 48 58 54 47 46 48 33
228 208 257 124 128 154 148 125 106 108 85 87 84 85 88 109 117 117 103 105 122 113 177 136 116 80 103 108 41 35 50 58 59 54 50 41 41 42
107 100 84 81 75 73 52 62 45 52 64 88 103 113 111 133 126 129 134 121 111 102 75 71 91 88 111 73 43 51 53 52 57 63 66 67 62 53
62 52 41 36 43 41 49 60 80 100 102 119 138 127 131 120 112 85 69 41 46 61 74 100 96 77 88 118 80 22 39 54 68 76 72 66 65 60
34 31 35 54 61 82 108 117 117 129 162 163 126 88 52 28 17 70 66 76 47 68 98 86 73 54 65 92 76 40 94 81 74 69 64 66 54 42
27 57 90 106 119 120 122 127 147 154 154 124 87 42 11 19 20 63 97 95 69 78 44 69 78 31 24 116 136 119 104 80 66 67 52 42 40 65
68 80 93 112 106 109 125 149 142 121 92 51 20 19 30 48 65 72 90 90 89 128 119 83 130 62 118 142 127 140 106 124 136 87 57 38 37 49
72 83 102 105 118 132 143 124 93 58 28 19 33 38 47 51 55 57 57 70 96 108 100 125 195 164 168 155 144 139 148 151 135 155 102 49 27 15
77 85 110 127 132 135 111 72 43 18 26 45 42 45 44 47 52 66 83 89 97 110 105 110 162 158 197 210 170 188 145 137 111 97 140 135 126 111
100 86 100 110 110 103 82 52 25 25 41 49 51 39 42 52 59 69 66 68 68 74 94 115 137 157 164 193 204 212 182 182 161 167 166 145 136 152
85 89 103 114 118 110 79 46 35 40 44 49 53 50 53 55 64 65 74 81 96 84 84 93 113 147 189 184 187 180 158 185 206 189 152 127 125 133
91 88 105 115 113 108 87 58 52 53 55 60 64 69 69 74 78 84 94 97 94 93 95 107 120 127 135 174 163 188 182 202 200 174 149 110 101 101
93 103 108 112 108 102 83 68 67 59 59 68 74 80 83 89 63 81 92 95 97 95 110 130 133 134 124 142 157 102 159 181 162 179 199 171 138 131
102 108 106 108 107 100 77 60 62 62 60 74 80 86 88 91 95 108 106 96 100 103 119 132 167 189 170 144 134 191 154 186 207 205 185 155 144 144
90 102 120 119 117 108 86 66 60 63 66 79 83 86 95 99 99 113 104 50 47 84 106 147 180 106 130 141 196 204 216 192 154 148 131 97 73 102
95 100 109 120 121 110 92 81 79 83 71 78 85 91 116 115 111 112 117 113 110 110 126 159 161 170 141 114 136 167 190 197 170 117 94 73 30 108
106 110 114 118 121 113 106 93 94 97 99 82 91 103 105 104 116 122 127 130 143 124 66 75 169 174 178 181 152 193 166 176 176 136 141 93 81 102

GFSNE_con_3kmhel_084.txt.gz
Helicity
206 228 266 309 319 303 303 350 337 317 235 223 275 278 310 318 257 326 228 110 82 98 101 111 110 112 108 93 104 103 90 82 77 70 72 76 76 68
180 202 225 235 257 250 256 270 257 259 254 243 222 230 211 232 196 173 143 123 113 95 86 93 78 77 82 78 73 67 64 64 71 78 78 92 97 105
224 237 261 245 264 260 266 236 243 228 212 257 250 211 253 199 197 189 154 144 135 82 81 78 76 74 70 72 79 91 88 90 97 102 119 125 107 109
237 241 244 239 231 209 204 223 231 240 214 209 218 271 233 209 200 157 144 139 122 87 77 78 101 94 79 86 87 83 85 118 124 119 115 101 103 104
199 197 185 183 205 222 213 221 221 209 215 223 193 223 231 236 195 139 117 114 120 126 129 110 88 81 104 120 123 129 141 136 116 106 90 75 69 67
191 192 192 208 186 228 179 169 145 148 148 155 195 181 173 141 141 117 116 143 140 125 119 125 128 114 120 126 123 115 104 92 72 54 39 29 27 28
196 173 163 144 165 133 98 105 106 116 155 155 138 135 131 127 124 129 139 141 138 144 150 127 110 102 83 59 57 56 58 58 60 59 47 36 34 33
147 142 140 138 118 103 107 108 100 100 100 106 111 124 123 135 152 156 151 144 121 82 48 88 54 92 92 101 74 64 67 67 66 62 48 36 36 28
72 77 76 68 68 66 74 82 91 99 105 114 134 143 160 159 167 145 101 81 81 75 55 106 88 98 85 92 57 67 100 106 105 100 86 64 43 22
62 58 57 57 53 74 94 116 132 137 141 154 155 159 148 119 110 78 56 69 72 85 83 84 81 97 96 126 81 114 119 133 100 89 76 60 41 28
50 50 55 68 83 100 111 129 151 162 183 191 164 122 85 47 20 70 73 94 79 95 100 91 79 77 79 85 94 103 110 119 112 97 65 50 34 27
45 57 69 80 93 96 114 123 128 133 162 167 147 118 77 46 51 65 73 95 91 96 90 73 90 61 52 72 93 129 136 109 94 83 62 56 51 65
43 47 56 78 82 91 113 117 113 135 141 140 115 77 50 59 64 63 71 92 94 100 82 90 106 96 99 102 107 156 132 147 142 117 100 81 51 49
46 48 55 67 79 88 108 104 117 148 138 124 100 62 65 68 62 52 57 65 83 87 73 78 112 119 105 106 110 111 119 119 116 137 140 79 73 54
50 46 57 60 71 91 98 104 136 131 123 115 85 68 60 56 53 62 66 63 72 82 77 102 109 105 106 111 118 92 53 78 102 94 124 119 130 114
58 51 47 61 86 89 106 122 122 123 121 108 85 73 64 68 79 78 85 86 83 105 98 100 117 148 122 131 123 104 92 90 108 121 140 147 143 142
62 59 70 84 90 95 104 118 133 134 135 102 106 98 94 95 98 96 92 94 103 85 106 138 142 145 139 126 101 114 72 88 121 148 133 98 95 109
72 68 73 82 86 93 102 116 133 137 145 133 122 112 110 111 109 117 119 125 105 107 117 129 132 112 82 74 100 84 96 113 158 152 150 149 129 116
81 72 85 92 90 94 104 125 136 141 148 148 136 130 118 118 102 119 131 125 104 114 117 128 134 108 59 58 108 20 81 112 66 99 150 161 154 138
88 93 95 100 102 106 112 126 132 154 155 162 152 135 135 125 117 125 128 121 107 110 107 104 120 160 97 101 72 114 75 82 87 91 89 148 154 124
83 87 94 98 105 113 117 120 126 137 158 148 158 142 130 128 114 133 117 73 68 91 88 95 114 44 85 111 110 75 88 73 66 87 96 43 20 131
98 101 98 105 111 119 119 124 126 134 138 140 140 147 150 152 135 125 122 114 105 105 102 100 81 62 85 108 119 12 58 99 113 104 113 102 7 38
111 115 112 111 115 119 130 133 141 137 153 152 157 161 167 156 153 140 123 110 102 97 95 81 59 46 68 102 103 52 13 51 59 71 156 115 120 114

GFSNE_con_3kmhel_087.txt.gz
Helicity
177 181 192 209 213 219 216 214 195 207 179 206 209 212 235 244 282 267 251 220 110 89 93 79 124 104 108 98 109 108 109 109 111 95 69 54 60 59
167 181 184 184 209 206 205 215 206 211 239 231 213 205 198 215 208 233 202 154 139 135 106 108 120 105 100 91 96 93 82 71 61 54 54 56 76 70
220 211 223 224 238 245 231 221 219 190 202 195 203 198 200 197 177 200 167 153 166 123 119 148 122 100 93 80 70 73 70 63 64 62 80 87 74 83
227 234 232 232 245 232 226 210 194 182 185 205 190 180 170 137 161 204 178 219 167 135 124 111 96 89 60 64 68 73 82 86 122 99 81 75 82 81
218 196 190 188 194 189 189 169 182 192 161 160 152 160 152 175 176 169 160 162 135 115 127 96 84 101 102 106 110 102 90 96 93 75 61 48 44 46
225 201 173 168 173 182 179 173 189 164 154 150 148 179 174 158 147 148 145 146 127 110 102 103 144 124 96 78 68 69 64 50 40 32 23 17 14 9
206 176 160 164 167 130 108 116 113 118 117 131 132 136 142 157 166 158 171 153 132 130 136 112 69 54 68 72 73 66 60 53 48 45 42 35 31 23
174 175 169 156 130 128 112 105 94 86 93 108 122 145 159 178 180 184 174 162 136 108 55 76 67 79 80 81 60 51 58 62 64 66 59 54 45 46
128 107 120 96 90 84 89 102 109 121 123 135 155 165 180 168 187 174 141 120 79 54 42 85 64 83 79 75 46 75 103 140 126 87 65 47 35 29
89 80 71 61 61 75 86 101 120 143 146 150 163 166 159 150 140 125 93 67 59 62 49 66 74 62 63 81 79 116 143 137 83 81 62 56 46 31
65 48 50 63 74 87 95 103 117 132 161 175 167 154 145 116 82 103 90 105 86 81 55 62 77 27 69 96 94 81 97 69 83 73 58 51 37 28
50 47 60 65 77 81 89 96 107 112 145 152 152 156 140 111 81 76 89 106 97 93 84 81 84 75 73 84 93 107 106 91 73 72 58 59 52 89
42 46 50 61 61 60 73 83 85 106 117 127 136 146 139 105 77 68 69 95 104 98 85 92 106 99 89 87 78 119 89 121 129 102 83 76 82 80
41 42 41 42 54 58 76 59 78 125 118 127 141 138 126 99 89 72 61 72 86 92 85 101 120 127 120 98 88 94 101 102 112 116 129 80 80 63
42 36 36 36 52 71 62 64 106 112 118 129 125 123 110 105 87 83 83 75 77 85 89 123 124 119 137 138 129 107 69 82 74 71 102 116 122 120
54 49 43 55 65 66 74 90 95 108 121 128 131 124 126 108 106 102 110 99 94 113 98 92 114 171 150 143 136 124 133 108 100 62 84 97 101 122
62 56 61 70 68 69 74 83 101 115 144 133 142 148 145 134 132 126 124 116 113 122 114 157 167 168 175 157 142 157 128 111 117 80 81 48 74 100
73 65 62 63 65 72 81 94 113 115 131 133 147 152 152 147 134 141 143 140 121 121 125 137 148 136 133 106 122 125 127 138 119 101 90 41 46 77
82 75 75 78 77 81 94 114 118 124 138 146 144 150 156 146 127 137 154 164 141 137 133 140 156 142 115 96 106 45 87 139 133 60 56 54 29 87
88 85 86 92 94 97 104 119 118 118 143 157 150 157 164 157 147 139 149 170 155 146 141 144 166 170 122 113 88 86 77 110 116 78 53 68 80 -8
85 93 98 101 105 112 115 120 129 129 137 147 161 166 167 170 158 156 167 131 119 142 131 113 126 69 103 93 106 95 92 76 106 147 43 25 -4 4
102 106 109 121 122 124 123 131 130 135 142 146 142 157 160 189 186 183 181 182 168 160 143 121 112 122 103 95 88 40 47 77 106 97 94 -85 -31 -14
118 122 127 132 135 133 137 148 154 146 157 154 151 155 175 184 191 195 199 195 171 148 129 105 96 102 99 93 66 36 8 39 78 97 152 71 27 9

GFSNE_con_3kmhel_090.txt.gz
Helicity
230 211 189 163 154 165 181 191 200 214 189 191 186 208 182 199 229 195 205 252 194 118 115 58 99 88 88 123 108 113 112 99 94 78 68 40 34 39
203 182 168 162 177 179 167 182 200 196 211 224 184 166 167 151 176 170 163 146 131 117 103 107 130 126 136 114 97 96 81 72 68 64 59 50 52 68
217 209 217 158 179 183 193 202 208 200 214 199 187 167 158 166 170 152 151 131 148 141 132 123 114 114 95 95 100 92 92 78 70 66 74 75 73 73
231 247 210 200 219 209 199 200 197 188 177 156 179 149 140 128 154 153 150 129 146 127 122 102 108 118 109 89 78 76 89 92 79 64 49 42 43 53
240 212 214 218 198 185 172 177 179 171 165 174 159 140 135 144 159 160 149 133 127 133 115 101 103 115 113 101 87 71 48 36 27 21 11 9 14 18
245 248 227 190 159 148 165 171 146 142 143 139 137 128 127 132 145 144 133 140 135 123 113 120 130 115 84 43 34 36 35 29 23 23 26 24 22 22
263 239 193 161 151 140 111 109 108 109 108 116 120 115 124 137 146 156 165 151 150 145 150 142 107 55 43 58 57 42 32 24 27 30 28 25 25 24
215 212 189 165 138 132 114 94 75 70 85 99 114 128 130 150 175 177 172 181 178 141 118 109 43 66 64 64 32 27 28 34 37 38 36 34 42 43
160 148 137 105 110 108 98 109 103 100 97 105 122 129 145 152 184 187 175 174 141 82 75 105 59 73 55 48 23 45 62 95 124 61 35 44 39 36
112 84 77 82 77 75 78 91 93 108 110 123 137 139 148 164 169 163 154 133 98 64 45 108 83 80 84 49 73 92 98 120 80 42 52 43 40 33
73 57 69 62 75 80 78 80 87 95 117 133 134 139 153 141 142 166 138 145 125 102 64 85 93 58 75 85 89 110 93 69 62 67 34 31 31 25
59 59 67 63 71 67 70 73 86 80 101 113 120 132 152 169 166 121 124 132 124 122 88 91 89 68 83 86 99 68 74 63 63 52 46 48 45 68
48 51 58 61 56 53 63 61 60 74 91 100 104 118 134 138 131 104 102 119 126 119 88 93 102 102 93 81 66 102 112 122 142 100 68 60 51 48
44 46 41 41 51 52 58 32 47 94 79 83 101 114 122 121 121 114 108 99 99 101 93 117 121 129 122 98 103 107 99 124 118 127 117 71 44 33
46 40 32 33 46 58 39 41 82 78 82 93 95 100 104 118 122 109 105 99 94 102 102 115 117 112 129 141 162 133 98 119 110 62 99 106 90 81
53 54 46 54 54 53 60 69 68 73 85 94 103 102 108 115 127 134 144 138 129 148 121 129 131 163 157 153 158 154 149 141 133 110 97 94 93 110
62 58 59 58 55 55 59 62 67 78 104 108 115 112 104 118 129 151 153 156 154 155 165 193 177 161 163 164 168 170 167 140 121 115 111 60 85 107
75 68 60 56 56 61 61 61 73 75 92 99 122 128 125 130 134 156 163 173 154 164 165 180 186 180 156 117 145 156 136 142 120 116 125 80 50 90
78 71 74 73 66 72 74 84 83 87 101 117 131 134 131 135 125 149 156 167 161 169 168 199 201 213 198 172 125 77 125 114 131 107 99 119 89 70
95 90 83 79 82 88 90 98 88 87 110 112 128 146 145 144 142 148 153 156 165 173 168 196 218 251 219 197 159 102 77 108 99 100 98 94 113 42
98 98 89 90 93 98 102 106 106 104 117 124 132 143 156 169 140 141 147 123 130 162 159 161 185 104 151 140 156 142 108 55 58 86 84 53 32 20
112 110 108 110 112 118 122 128 124 119 126 139 139 143 148 172 165 163 177 174 183 200 198 177 155 174 176 156 131 99 74 73 70 50 -2 -54 31 34
135 128 125 123 123 128 140 151 154 135 143 148 150 150 166 179 179 185 182 188 196 195 188 169 147 159 148 141 93 96 65 54 83 77 91 33 8 11

GFSNE_con_3kmhel_093.txt.gz
Helicity
222 239 251 219 180 165 158 152 192 183 148 179 183 206 160 192 208 178 191 249 251 214 205 163 115 127 95 109 117 133 112 101 75 62 58 46 43 52
314 281 242 186 160 155 147 151 170 172 184 214 188 189 192 172 175 156 168 188 186 153 128 141 127 109 108 87 90 84 89 79 70 62 59 62 68 84
300 255 235 179 169 171 164 172 173 173 186 185 194 181 160 148 141 125 112 131 116 122 123 116 91 84 80 88 92 85 79 71 64 64 75 78 79 83
265 247 230 227 231 203 164 181 165 162 152 167 163 150 151 139 130 107 116 112 95 92 96 104 112 113 104 92 83 73 75 77 66 42 29 30 31 35
259 249 226 212 203 183 189 162 143 140 159 147 134 119 109 102 87 93 99 102 100 119 125 116 104 89 100 104 96 80 56 34 30 32 34 35 35 41
276 259 227 203 189 167 160 138 127 131 118 126 120 109 98 97 102 99 105 122 122 134 126 123 123 105 90 77 53 34 36 35 32 34 36 35 37 35
279 252 230 199 182 149 117 116 109 108 105 99 93 91 99 105 108 127 131 128 133 148 149 136 115 91 67 43 42 41 38 36 34 35 36 32 31 35
242 246 221 190 151 144 133 123 91 83 84 82 87 102 117 125 133 138 133 133 142 158 145 127 83 71 55 54 43 29 29 28 32 40 54 43 32 32
176 180 171 148 147 128 123 112 105 105 94 91 100 109 120 125 134 133 123 122 128 126 106 108 67 73 60 46 30 35 39 41 79 68 45 29 32 31
138 125 115 102 84 80 70 79 85 99 96 102 110 109 116 119 114 121 117 103 90 75 64 125 80 87 63 56 56 69 53 63 67 59 37 39 29 24
114 93 78 66 68 60 67 71 76 85 105 113 106 99 100 82 99 105 87 87 93 97 74 107 109 95 88 81 82 117 74 61 53 63 49 37 38 32
85 60 53 51 55 63 60 63 71 72 74 81 86 90 102 123 114 83 91 88 107 109 110 107 111 103 103 97 84 91 78 76 87 68 66 68 74 76
49 48 47 53 53 54 55 56 60 68 75 74 74 82 99 100 93 90 87 104 117 117 104 109 113 112 121 108 85 98 95 106 102 112 103 98 95 79
42 42 43 45 47 48 53 39 45 72 62 63 72 83 87 88 88 83 78 82 85 97 90 105 123 122 117 101 97 90 81 91 91 110 121 90 69 55
46 44 40 36 37 48 44 39 64 55 59 61 70 79 85 91 87 95 87 81 87 89 95 117 120 110 116 128 122 98 93 108 105 69 99 87 74 74
53 53 45 45 45 50 57 58 51 51 53 61 73 83 92 91 91 99 107 107 104 122 135 140 144 154 142 137 140 135 118 124 118 108 81 60 57 59
68 62 57 56 56 51 45 46 48 51 56 67 79 82 83 88 88 104 111 114 112 118 142 162 160 137 133 140 149 164 143 107 95 94 79 54 48 46
71 65 64 60 54 50 48 51 54 51 58 65 71 76 86 96 100 107 110 118 118 120 119 143 156 162 167 140 148 142 123 111 98 86 78 50 45 45
69 67 67 68 60 58 55 56 61 59 68 67 72 82 89 99 99 112 116 120 120 123 124 140 159 184 178 155 146 90 101 73 91 99 92 78 53 68
86 70 70 71 70 68 67 72 65 69 72 70 75 91 99 105 111 111 111 119 124 127 120 136 163 198 194 192 188 116 115 114 95 92 73 67 57 21
91 85 83 82 83 82 80 85 84 81 89 89 88 102 109 123 122 123 118 99 111 130 139 138 159 133 168 184 201 157 110 50 46 82 76 62 64 50
108 103 105 105 102 101 99 103 104 97 93 104 96 112 126 140 132 127 128 129 132 146 159 157 144 154 171 189 176 136 113 59 45 44 19 25 62 54
127 126 124 123 121 117 115 120 119 106 109 110 114 124 143 149 146 148 144 147 149 154 155 146 137 145 152 157 139 138 96 80 69 64 86 46 25 0

GFSNE_con_3kmhel_096.txt.gz
Helicity
178 191 207 232 233 225 193 179 178 168 138 179 191 175 202 197 203 171 217 248 233 228 227 230 201 175 151 145 128 109 97 91 73 66 60 59 55 60
280 278 308 277 264 227 169 150 166 173 186 212 202 195 194 176 181 162 158 172 181 195 206 175 141 134 150 97 81 85 84 78 78 78 78 83 89 98
298 308 308 259 259 226 177 161 172 165 212 223 217 187 169 150 140 133 149 132 126 148 127 103 99 94 88 90 97 91 84 84 84 95 108 113 99 77
287 277 255 297 261 234 210 187 192 183 205 184 176 158 152 148 128 102 100 101 102 102 101 97 104 112 117 106 101 91 86 93 109 114 88 64 60 59
239 230 264 249 257 234 211 203 193 182 169 150 162 139 117 87 81 74 67 75 86 108 99 106 102 101 108 111 103 95 93 87 65 49 51 58 57 54
274 254 240 240 214 196 209 195 160 148 132 130 118 108 91 82 79 72 76 94 103 108 104 114 111 115 104 94 78 66 49 38 41 47 50 49 50 46
285 287 274 249 223 186 164 151 141 128 122 114 104 88 88 88 86 103 106 106 102 118 108 112 113 96 78 53 29 41 43 43 43 44 44 44 47 56
271 268 241 232 225 206 183 169 136 110 104 99 90 86 101 107 106 111 118 104 112 113 116 100 83 65 44 40 66 43 28 29 35 41 65 68 52 50
247 245 225 211 181 151 150 151 142 130 121 87 90 98 99 104 130 118 111 112 104 112 83 77 61 49 52 50 37 25 32 48 64 100 64 47 44 46
200 164 157 142 122 107 93 96 87 91 98 102 106 108 119 111 115 104 99 91 76 77 73 81 75 66 60 49 66 59 70 69 82 65 53 48 38 34
147 131 118 101 92 69 65 61 66 81 99 112 117 114 105 94 88 91 86 83 82 83 77 85 108 99 70 71 78 86 88 84 51 47 49 48 38 44
126 105 86 75 61 48 46 50 58 62 66 67 71 72 65 90 85 75 83 87 86 80 98 106 119 124 129 108 90 88 98 79 70 70 61 48 57 73
84 73 57 49 42 49 60 65 68 63 69 64 60 61 67 78 81 90 100 99 91 91 112 112 120 125 137 124 101 96 99 98 111 105 94 88 99 90
62 53 46 38 44 51 49 63 55 61 58 56 55 59 66 76 82 86 89 81 82 89 96 108 121 136 136 121 118 112 107 97 105 113 126 126 97 67
55 47 45 38 43 51 57 48 50 48 48 51 55 66 72 88 96 80 72 77 87 95 102 113 120 126 135 144 128 114 107 113 102 84 110 115 105 104
54 54 51 49 55 52 53 54 47 43 44 48 60 73 86 84 78 81 85 93 96 109 134 131 135 141 136 135 136 119 119 133 127 106 106 105 88 81
60 61 57 57 56 54 51 47 48 46 43 47 61 72 72 78 81 86 91 95 100 115 135 153 153 138 134 135 145 132 139 132 120 123 129 120 90 75
69 60 56 58 55 54 57 58 53 45 42 50 57 66 70 75 81 95 103 103 113 123 135 149 162 170 168 148 142 135 132 140 144 144 119 116 99 61
59 60 61 60 60 67 69 66 63 56 67 59 60 62 68 75 83 94 104 113 118 118 122 144 163 178 176 167 161 127 136 124 129 122 120 108 101 68
69 65 66 70 75 81 79 77 78 81 81 76 73 72 81 85 91 99 107 114 117 113 118 133 149 166 174 179 186 135 110 144 131 122 108 91 78 28
96 91 86 87 85 93 97 96 96 97 96 98 93 93 93 96 92 100 103 97 100 120 118 126 153 160 180 181 190 156 127 87 115 128 105 87 75 50
112 114 109 113 115 115 122 118 113 112 113 110 111 114 112 110 103 105 108 115 128 141 137 133 141 153 159 184 179 149 130 100 87 80 55 44 74 87
126 131 134 134 136 141 146 142 132 120 128 135 129 126 131 124 108 112 117 126 138 149 148 138 140 141 148 164 148 154 114 104 103 81 94 46 37 36

GFSNE_con_3kmhel_099.txt.gz
Helicity
163 168 192 236 271 272 276 284 269 217 156 181 171 169 188 176 208 215 238 236 257 248 225 202 203 207 181 163 148 161 157 131 140 115 98 98 101 99
239 229 264 322 340 321 283 253 210 183 199 207 190 182 180 177 183 173 164 169 185 181 167 161 182 174 141 126 132 159 134 121 118 106 108 108 108 118
252 245 293 319 289 320 256 280 230 191 216 214 221 197 181 153 149 166 139 146 136 137 128 124 119 114 114 123 142 144 125 113 105 113 121 124 125 122
209 248 270 292 314 272 262 271 251 213 229 224 202 188 170 173 154 118 111 104 92 91 96 107 112 126 116 107 123 129 123 120 123 124 125 115 79 53
214 223 240 265 273 293 284 262 241 222 221 210 206 181 162 132 102 92 75 77 70 85 86 82 85 92 97 104 111 111 109 104 99 84 62 55 56 51
251 261 244 235 264 256 256 219 218 204 211 210 168 141 124 111 90 74 71 67 78 83 81 80 90 97 93 86 88 84 80 65 55 56 57 55 51 52
267 309 330 328 312 261 232 211 203 204 190 187 137 123 106 92 83 101 100 112 85 104 92 90 108 99 88 74 59 55 54 60 59 55 53 47 46 62
244 263 267 279 265 259 292 275 203 165 139 138 129 86 89 116 126 107 120 112 108 108 97 93 97 79 69 58 91 81 57 44 42 44 43 66 64 60
254 263 265 232 223 236 241 232 219 199 159 103 88 108 120 113 131 129 125 122 115 120 86 78 88 65 65 64 67 64 40 41 46 55 93 72 66 55
227 230 220 223 201 165 162 164 150 144 142 137 141 142 149 129 122 109 101 94 91 99 83 84 81 70 69 67 91 74 69 72 79 101 75 58 51 41
200 188 166 148 114 116 114 100 102 80 111 130 139 133 136 139 121 105 87 91 96 99 83 88 92 74 69 72 89 92 87 122 123 78 50 45 42 39
160 159 125 110 102 92 68 68 55 56 74 76 87 91 80 100 88 99 96 93 110 100 99 106 111 116 118 113 101 100 108 102 97 74 66 58 57 89
125 122 101 83 76 77 70 71 71 76 62 73 73 73 64 82 79 93 110 96 100 108 108 114 115 116 126 120 111 127 136 133 136 131 106 94 93 101
103 104 73 53 55 51 67 62 66 73 65 68 67 65 65 76 90 94 106 103 94 93 111 118 122 133 143 129 136 144 137 141 145 146 145 125 104 104
98 68 52 38 45 49 53 51 49 55 64 63 56 64 73 96 113 88 73 70 76 88 97 114 123 124 141 162 144 129 127 144 123 110 127 130 126 137
74 70 52 45 41 49 55 51 51 56 59 54 63 78 89 77 76 70 75 83 95 99 106 124 137 143 147 142 139 121 133 159 153 151 154 126 119 117
67 87 73 67 60 59 58 59 63 66 68 64 74 73 73 70 75 73 77 91 102 110 114 132 139 146 144 131 139 135 147 147 161 154 163 147 128 132
77 72 66 66 68 68 70 72 68 65 76 76 70 67 69 76 82 90 82 91 93 101 117 137 153 158 145 132 129 134 141 168 173 165 158 177 138 129
74 69 75 84 82 79 90 92 99 90 92 94 90 84 83 83 72 96 104 98 90 97 109 119 158 179 173 171 147 108 180 174 176 167 168 172 159 120
75 75 84 91 94 96 99 108 109 123 125 106 102 106 107 110 108 106 94 98 104 118 125 136 163 179 180 197 200 157 104 144 158 162 167 157 132 57
100 93 97 102 104 111 116 124 122 131 138 131 120 129 134 136 125 116 107 72 91 132 118 128 145 138 231 218 197 186 141 88 111 175 173 170 140 87
116 115 114 122 131 139 141 148 147 136 148 159 153 153 160 162 154 150 136 118 122 130 115 127 153 183 216 210 173 152 122 116 106 84 58 74 157 198
135 143 145 156 162 167 176 179 175 170 172 181 194 189 194 193 179 169 145 128 131 133 131 136 153 176 189 198 151 151 109 113 126 117 131 83 75 85

GFSNE_con_3kmhel_102.txt.gz
Helicity
71 100 149 187 209 240 280 290 271 309 239 229 193 165 160 179 212 204 216 242 262 230 214 179 179 166 151 165 157 140 135 131 149 123 115 112 102 100
153 159 178 205 223 260 291 311 289 240 275 243 208 181 151 187 210 181 172 179 187 188 164 147 156 129 137 140 130 112 127 145 151 126 121 123 121 124
193 198 205 228 261 268 301 281 217 283 297 265 238 188 184 181 194 167 135 128 131 134 130 122 109 113 103 116 126 132 142 140 139 130 142 139 130 123
156 176 195 235 281 303 261 255 256 288 296 252 242 231 191 172 168 151 142 126 90 92 87 87 96 111 109 117 130 131 131 131 130 121 117 112 106 82
154 171 194 217 242 256 248 284 264 302 287 238 232 226 199 173 145 132 95 82 72 69 69 77 87 87 90 101 111 114 114 111 100 87 76 71 72 68
213 207 203 202 209 221 251 277 238 248 263 251 239 196 177 149 123 104 83 66 65 70 75 75 86 81 84 86 82 87 85 76 68 65 67 67 67 62
215 241 255 254 245 228 251 244 235 232 272 269 234 187 163 137 109 88 92 87 93 98 88 81 92 89 78 61 68 63 62 64 69 65 64 65 60 66
193 220 236 271 296 295 294 276 241 246 228 214 187 162 103 106 113 113 124 121 102 95 87 71 85 78 64 60 74 84 73 61 55 57 64 65 86 72
200 220 252 262 264 282 289 318 319 285 206 148 139 110 123 98 115 135 133 125 114 91 78 67 76 68 54 63 66 68 58 52 58 66 78 110 87 81
207 208 217 230 206 228 234 273 280 262 208 171 151 131 120 119 113 111 111 115 109 87 77 80 79 57 56 62 67 72 73 87 89 116 137 105 88 76
178 192 187 180 151 154 181 206 198 182 146 149 131 132 135 121 117 140 123 115 94 82 79 75 69 57 54 57 71 87 95 107 142 140 112 93 79 71
160 142 118 128 108 113 119 120 124 93 89 111 111 126 130 99 119 105 93 90 107 103 69 88 83 89 91 97 106 109 112 98 102 104 111 115 97 111
119 124 122 83 92 89 88 91 67 60 56 70 79 91 93 91 96 97 90 91 109 109 87 100 97 96 101 92 100 117 122 124 132 137 122 113 127 131
84 84 78 68 74 80 73 71 54 65 77 79 81 79 79 76 87 96 106 115 110 97 102 101 99 105 107 92 117 126 107 113 125 135 154 146 139 131
68 69 57 53 49 57 52 54 60 74 73 84 78 75 77 77 97 94 85 84 74 67 77 87 105 96 103 116 113 116 110 144 116 161 159 158 145 146
63 65 56 51 53 44 55 55 61 55 67 68 61 74 102 107 95 70 78 70 75 67 71 82 100 117 105 100 107 95 118 142 150 142 166 139 117 117
98 91 87 79 74 66 64 56 54 62 81 74 82 108 99 86 52 76 78 71 73 74 84 98 109 112 104 111 105 123 119 140 167 151 149 129 124 148
108 109 98 75 69 77 74 72 70 63 74 72 83 95 99 85 77 96 96 81 77 75 91 101 123 121 103 88 91 107 125 134 151 151 173 160 101 124
92 85 83 78 78 82 89 96 95 83 89 92 91 88 91 92 76 114 118 113 94 90 79 96 117 131 126 122 108 75 158 179 153 134 175 157 137 125
93 75 61 76 95 94 102 113 114 113 121 119 124 116 108 117 120 122 131 135 125 116 97 97 128 154 162 156 128 131 87 140 160 132 139 127 131 72
143 105 60 85 109 120 119 121 130 140 154 157 136 137 129 145 141 146 135 84 95 132 106 106 113 77 147 185 154 145 153 102 115 192 168 134 105 99
136 126 95 112 130 141 139 139 140 127 152 153 149 147 145 150 153 162 154 140 114 139 123 128 117 155 174 173 133 142 135 118 128 112 77 84 149 160
110 155 124 142 154 158 161 162 160 161 170 178 189 184 186 179 185 188 167 170 167 145 116 127 143 154 159 183 133 137 121 122 131 118 122 113 80 56

GFSNE_con_3kmhel_105.txt.gz
Helicity
44 10 70 79 119 153 188 234 220 213 241 243 260 208 199 178 153 166 177 205 226 263 265 214 176 158 153 159 131 91 109 104 102 104 106 105 90 96
46 76 90 88 111 159 209 226 268 223 218 281 315 192 204 164 168 182 211 220 207 180 172 158 142 125 126 109 107 101 113 110 109 114 116 114 114 115
85 87 85 121 154 172 199 237 270 283 228 310 339 222 251 200 174 169 174 195 172 135 132 132 113 102 95 94 101 111 118 110 112 121 134 131 126 112
94 111 127 165 169 195 215 251 202 236 240 251 247 282 276 189 199 181 176 159 146 115 99 88 81 91 92 96 112 116 118 119 123 121 114 106 106 84
148 152 156 173 168 206 224 238 231 266 293 305 331 338 293 261 222 203 170 143 98 69 59 65 78 85 82 89 96 110 118 110 97 84 79 72 69 63
170 165 174 177 188 192 200 197 222 255 280 312 313 264 281 222 214 191 140 114 73 60 56 71 73 73 79 83 85 91 88 74 56 55 59 66 65 59
191 201 201 178 161 165 194 201 225 242 265 270 260 239 224 216 177 143 124 109 94 84 75 82 83 88 80 69 78 66 49 40 44 52 61 64 60 62
134 158 170 200 200 203 194 187 200 241 217 229 210 199 181 187 158 136 143 143 101 89 95 81 85 72 62 66 50 44 50 47 47 49 54 59 71 82
152 146 158 174 197 215 237 288 286 239 190 170 151 136 154 133 156 144 132 134 120 92 93 72 77 68 64 51 54 55 47 38 37 39 50 74 101 91
137 147 156 177 194 209 211 227 233 214 198 162 149 131 110 120 103 102 122 145 148 112 80 69 87 71 74 71 57 59 53 59 56 67 108 126 107 85
146 157 158 159 151 159 178 183 197 202 188 179 144 116 108 106 113 162 155 162 117 79 76 80 79 71 70 71 65 60 67 76 106 125 127 113 96 86
136 136 127 129 103 108 140 134 151 128 127 140 135 132 129 114 108 103 114 125 110 90 75 87 76 80 94 94 95 96 91 89 97 107 116 126 119 125
113 113 107 80 73 70 83 91 82 76 68 68 82 93 105 107 103 104 92 86 99 93 70 89 85 95 98 90 82 105 122 122 125 131 133 132 133 138
103 94 77 47 55 59 70 45 47 59 74 69 73 83 84 86 88 95 93 106 101 79 87 89 82 87 92 97 106 109 91 100 129 131 144 141 156 138
90 70 48 50 45 63 55 40 50 66 67 70 61 74 74 68 90 103 104 101 99 91 77 75 73 76 96 98 104 104 105 141 124 166 169 122 130 126
76 55 56 74 67 54 53 49 69 61 60 72 72 81 101 113 95 84 79 69 72 72 54 57 66 78 78 82 86 92 95 112 141 117 121 117 119 102
120 119 107 96 88 76 61 52 47 54 68 70 80 96 96 98 98 90 91 82 76 82 74 67 64 75 83 99 101 108 89 91 115 143 132 98 125 119
128 118 111 112 101 74 58 54 61 46 66 85 95 102 105 100 86 89 101 93 81 75 75 72 83 85 84 78 75 107 88 98 116 132 132 99 70 125
123 96 96 107 102 96 65 61 70 77 90 96 102 108 114 101 75 99 102 103 92 96 94 94 110 112 93 114 99 80 119 129 127 123 136 152 122 113
132 109 101 128 87 100 63 87 90 101 103 103 108 102 111 125 126 128 124 125 115 120 115 113 114 114 105 117 94 104 96 125 126 113 116 103 103 49
152 109 109 137 98 64 92 96 108 110 116 131 124 125 122 130 114 117 125 91 106 148 126 126 122 87 131 135 108 132 120 84 100 138 125 105 80 95
181 139 94 138 153 116 105 93 112 107 119 132 134 134 135 142 129 136 141 142 136 165 159 179 173 179 171 146 114 108 124 118 92 75 60 82 139 126
189 181 154 116 175 147 103 115 126 114 136 154 157 157 163 155 154 159 169 177 189 174 155 182 200 202 156 154 95 95 95 99 104 86 118 101 74 63

GFSNE_con_3kmhel_108.txt.gz
Helicity
100 53 91 172 99 92 111 164 162 97 108 172 238 248 224 214 204 180 166 181 258 299 297 252 234 209 193 187 151 149 59 101 76 77 64 78 88 104
-11 5 17 62 78 97 100 125 150 167 164 259 262 209 230 243 200 204 200 189 223 213 219 207 180 163 138 123 92 114 89 76 83 95 74 85 94 102
74 78 74 91 86 84 99 124 155 203 191 269 289 274 264 245 222 211 216 170 207 207 196 172 154 136 115 91 87 93 77 87 97 93 103 97 93 87
50 60 64 78 81 101 119 160 176 215 251 228 284 265 224 218 200 224 191 187 168 158 142 132 107 100 106 95 86 83 96 99 102 102 95 85 79 81
104 97 86 98 107 129 152 174 202 225 282 287 258 277 281 284 267 293 217 222 179 141 127 106 80 78 78 74 81 86 89 90 85 78 67 64 65 65
117 109 112 122 134 149 166 180 194 206 245 251 270 281 283 247 258 215 202 193 163 137 103 77 74 73 69 71 69 78 77 74 60 46 47 52 59 63
108 115 131 148 160 166 178 172 194 214 244 256 262 261 262 276 195 158 173 185 153 124 92 88 90 87 83 89 78 68 62 52 33 32 41 50 56 51
64 62 83 130 161 175 176 170 163 180 219 225 232 199 186 158 172 188 211 192 129 108 99 97 95 84 83 73 58 62 57 34 34 36 41 49 52 63
51 30 64 133 179 196 232 254 252 244 212 196 183 168 165 134 190 214 190 157 119 82 105 94 103 84 85 75 61 67 49 37 25 29 39 47 62 74
59 27 34 99 158 188 208 222 227 228 226 218 198 160 114 133 162 140 147 144 146 137 115 84 98 88 101 91 65 51 49 43 38 48 54 77 98 91
94 61 47 93 122 147 160 162 186 217 205 207 186 156 145 130 124 155 144 159 124 107 106 92 86 99 91 75 74 56 59 57 74 80 104 105 98 95
112 80 89 106 99 103 123 126 139 135 153 173 191 211 183 140 106 103 107 130 131 103 88 101 98 98 98 88 98 104 93 94 95 88 93 110 126 131
108 81 99 84 76 75 87 99 99 101 99 116 122 120 115 105 100 103 103 100 124 103 64 109 96 105 115 98 105 108 119 117 112 114 120 124 128 118
110 99 92 81 68 55 56 53 54 71 82 82 85 86 72 78 89 89 97 103 97 73 84 94 90 106 115 117 102 119 114 104 113 117 123 145 149 112
119 95 72 56 57 58 50 34 53 66 74 94 88 72 53 61 94 100 97 102 115 108 89 86 94 100 104 102 108 120 127 116 101 118 155 141 123 122
115 86 71 47 77 68 63 54 82 71 73 74 69 67 78 92 97 95 91 95 99 86 61 57 68 85 90 81 95 105 111 133 126 114 92 93 119 117
115 112 116 108 103 86 81 69 53 61 70 63 66 72 74 101 106 98 100 99 88 79 88 83 71 69 82 90 102 126 139 118 112 114 113 95 110 116
144 139 115 108 101 105 94 87 71 50 70 77 65 92 99 108 110 111 113 113 102 82 73 79 90 88 89 76 69 123 130 112 112 106 103 86 79 130
149 137 112 103 111 135 151 160 137 107 74 78 87 95 114 113 78 112 112 106 93 94 85 94 98 102 106 100 94 64 115 149 142 127 123 121 86 105
159 159 115 102 107 113 124 153 155 107 73 83 98 108 127 117 123 125 113 110 102 111 104 107 108 116 127 110 99 103 79 140 137 128 118 106 86 33
173 187 169 121 100 131 148 155 126 113 104 102 92 114 124 128 104 111 117 84 92 128 99 96 123 94 152 178 140 141 109 80 114 123 104 97 92 86
166 172 187 177 150 115 147 162 148 79 83 119 101 124 125 130 120 130 136 129 120 133 132 149 185 200 201 158 131 135 137 147 103 45 46 93 141 109
154 160 172 186 178 143 127 128 121 90 118 133 121 138 149 140 141 144 149 142 143 146 164 187 210 212 193 151 132 135 115 138 140 122 118 67 48 36

GFSNE_con_3kmhel_111.txt.gz
Helicity
123 92 67 91 54 53 100 138 159 154 74 51 155 202 215 237 229 182 206 240 265 259 226 255 263 237 256 266 249 270 202 136 98 51 71 69 56 74
68 42 54 105 81 74 71 84 124 138 120 134 145 183 196 223 228 223 237 200 232 223 204 233 232 216 193 172 141 107 70 105 84 69 57 65 66 92
62 63 50 60 33 62 57 66 71 99 106 149 173 206 243 246 254 221 207 240 196 200 205 226 219 180 153 146 121 102 78 65 65 68 82 77 77 81
69 71 72 37 25 45 56 69 91 108 142 116 229 247 267 275 253 249 222 189 183 163 179 200 189 163 133 126 113 87 79 77 77 90 90 82 70 62
74 82 74 70 60 63 66 89 117 138 162 206 231 278 267 252 242 275 261 202 181 160 191 190 150 124 102 83 78 83 86 85 80 85 74 58 49 50
80 69 67 59 50 55 65 80 108 132 158 210 240 247 256 255 272 248 221 166 180 176 211 166 136 86 75 76 68 81 86 82 66 57 43 34 40 46
110 89 76 64 47 43 68 111 135 159 184 232 253 262 251 267 218 226 231 217 160 165 169 149 123 99 93 102 88 84 74 64 54 42 25 32 41 42
112 109 93 85 55 48 116 161 168 192 214 237 257 244 233 244 250 226 260 179 115 155 156 116 101 82 87 86 72 78 60 55 49 37 32 38 43 47
102 97 90 75 55 26 91 178 230 258 229 212 208 181 190 161 236 236 218 204 166 136 146 110 95 83 96 87 68 62 66 65 55 39 33 35 43 52
83 89 87 79 66 27 72 124 175 209 217 206 201 191 185 177 196 181 192 224 213 163 125 96 88 94 106 101 121 74 68 63 53 36 33 37 45 68
68 98 104 100 84 45 82 119 152 168 168 187 198 197 179 151 151 184 226 237 181 116 103 97 83 101 106 109 119 97 66 63 58 52 58 76 88 67
66 92 97 113 105 63 102 105 120 119 127 132 142 182 227 189 163 154 149 185 149 98 89 111 98 96 94 109 104 105 103 96 91 84 84 79 88 117
65 102 90 101 113 92 104 86 95 106 103 104 108 119 126 129 123 116 116 99 115 108 62 106 103 125 123 92 115 110 105 109 116 124 123 113 102 99
82 99 88 88 116 117 110 66 58 76 91 97 99 98 103 92 86 85 92 101 104 86 90 111 85 102 122 116 93 104 106 113 116 116 114 125 128 109
112 75 69 79 108 112 79 61 38 104 84 88 88 72 61 62 81 95 101 100 118 124 119 110 95 102 111 98 86 96 115 112 113 107 128 149 132 117
117 95 84 96 83 89 75 71 86 85 77 78 66 74 76 85 83 75 75 76 100 110 106 85 76 86 95 83 83 95 103 113 112 133 129 124 113 99
131 131 124 130 119 115 103 79 79 80 91 84 74 67 64 75 67 72 77 86 93 107 106 86 64 61 66 79 79 88 98 100 118 114 125 120 116 108
148 150 127 129 124 109 104 101 93 87 103 87 77 65 80 74 81 77 81 84 102 104 99 103 109 94 83 62 58 102 97 99 112 133 136 123 120 128
160 155 145 146 134 120 121 130 129 143 132 95 91 94 94 95 60 96 80 93 105 105 95 94 104 108 98 98 93 50 95 107 121 119 128 131 118 128
172 161 161 162 150 128 125 134 135 145 142 138 156 139 95 76 118 137 101 116 112 110 100 100 103 109 114 98 108 110 66 130 139 129 135 120 92 35
148 162 173 187 176 162 159 138 135 124 136 165 130 84 115 133 127 108 116 84 87 111 90 93 112 83 135 138 118 124 123 107 165 160 129 108 94 81
149 149 157 167 178 189 182 173 159 155 149 128 88 91 107 130 118 125 128 120 110 118 113 131 155 148 171 151 140 161 159 152 131 79 83 98 127 88
118 129 136 144 147 158 177 177 164 155 177 173 137 149 135 122 113 113 136 140 138 124 131 156 179 189 183 186 159 165 163 145 165 157 121 61 36 40

GFSNE_con_3kmhel_114.txt.gz
Helicity
59 80 60 119 97 24 46 102 65 118 112 90 78 107 122 123 123 149 171 233 243 264 229 219 213 219 230 232 261 239 202 176 168 109 87 83 70 68
73 63 63 63 87 106 110 114 128 105 99 82 83 112 120 158 151 161 202 234 241 245 193 208 210 214 222 204 174 138 159 129 123 105 81 49 52 61
73 60 66 69 61 69 62 60 87 98 102 127 156 165 173 199 210 211 224 225 221 175 201 181 210 184 202 173 149 131 90 80 79 71 60 59 66 75
103 95 101 97 108 88 61 64 60 94 116 117 157 163 189 209 225 231 258 204 208 189 142 148 168 152 171 153 125 122 102 79 78 76 74 80 72 71
114 123 119 111 110 90 85 84 79 96 119 150 170 212 227 230 285 265 256 249 227 183 148 130 134 156 167 141 116 84 65 70 75 80 79 79 69 52
102 96 86 77 65 61 54 49 67 99 121 148 179 202 211 214 266 278 253 237 222 225 184 177 196 155 135 104 79 89 69 67 68 72 74 69 58 46
118 108 103 91 78 65 49 40 40 75 116 164 210 226 228 245 222 237 268 262 211 203 178 181 179 171 148 118 78 73 67 61 60 59 60 53 44 50
111 103 93 100 106 123 132 122 85 61 111 171 211 218 221 236 253 255 302 271 230 171 182 149 168 132 108 89 76 68 57 52 50 52 56 40 48 58
86 83 98 110 126 129 132 123 99 89 122 151 164 184 198 165 192 222 251 229 210 159 173 142 154 113 95 89 75 59 60 53 48 54 53 46 51 59
84 70 64 89 114 138 143 126 99 82 103 146 154 152 142 138 152 168 209 245 227 191 182 149 130 103 98 93 107 63 64 65 59 53 46 42 47 56
77 64 58 89 88 116 143 137 102 92 126 180 186 170 144 138 139 173 191 212 184 145 142 145 108 111 101 103 121 105 75 64 54 48 41 46 47 60
93 94 59 50 63 97 132 128 110 97 123 132 122 124 150 140 158 144 150 168 176 141 96 125 111 102 78 114 130 153 145 86 58 59 69 76 73 111
126 123 106 48 43 79 120 129 107 106 119 121 110 92 95 107 109 117 117 100 118 114 48 99 82 114 121 69 119 118 105 98 99 116 130 118 101 93
103 103 94 67 44 74 115 105 107 123 105 111 106 99 89 74 67 74 83 90 90 69 72 111 73 90 113 122 93 107 111 109 102 95 101 94 100 97
105 96 89 85 60 81 86 101 93 111 113 109 92 82 65 40 53 69 85 95 109 106 105 94 74 88 112 107 97 95 120 93 108 103 100 101 102 110
94 98 105 83 74 77 94 112 114 106 111 99 77 66 73 82 67 67 71 69 69 88 90 90 78 101 104 90 93 101 99 87 96 100 108 106 98 99
112 134 130 117 116 122 121 108 111 111 110 96 83 81 85 90 79 73 76 84 83 66 69 72 73 75 67 70 81 88 97 102 93 90 100 89 73 81
122 140 138 131 122 125 131 116 116 112 120 108 100 106 98 86 90 90 89 87 100 104 103 75 99 92 81 64 49 91 93 91 89 98 112 88 79 93
136 150 138 143 138 134 132 137 123 132 138 125 121 119 117 101 76 113 116 101 122 122 81 84 108 105 97 106 100 45 108 97 100 87 100 97 96 101
122 144 146 151 159 139 140 138 128 119 129 132 128 137 136 122 143 175 145 126 134 114 90 92 99 114 110 89 99 105 80 125 111 101 84 83 70 37
135 136 141 150 154 154 147 154 147 145 141 143 146 154 164 175 157 128 122 78 94 116 86 87 109 69 120 112 95 104 115 68 103 137 109 100 80 89
119 123 125 123 131 137 136 145 148 141 139 161 166 155 146 149 158 133 120 131 98 124 104 117 128 121 147 127 106 126 137 137 83 54 75 86 112 82
98 101 103 104 108 118 127 129 129 130 138 128 149 171 193 158 137 142 156 137 141 109 113 140 153 150 134 137 105 135 163 164 194 183 146 66 47 51

GFSNE_con_3kmhel_117.txt.gz
Helicity
143 127 121 107 125 81 124 97 27 107 154 116 108 104 83 110 82 85 108 124 153 226 236 220 229 246 217 215 186 219 179 147 135 169 136 77 63 59
89 79 80 74 73 80 89 94 101 94 109 94 91 112 127 130 123 140 154 185 196 191 188 219 187 183 182 187 225 202 175 129 145 131 117 75 57 62
105 104 97 88 91 101 106 118 120 119 114 132 140 148 147 148 169 184 205 217 203 190 186 179 158 154 169 170 185 179 161 125 101 63 61 42 54 64
121 98 96 100 110 113 113 116 103 101 123 108 129 137 151 161 174 204 229 236 227 208 177 162 147 135 135 154 195 187 169 154 82 76 44 40 42 49
105 106 112 108 105 94 90 88 87 90 99 114 135 166 173 197 229 237 219 247 228 186 170 146 135 129 124 181 211 178 160 132 114 91 58 60 48 56
148 128 110 101 90 87 85 81 74 68 68 93 129 147 173 201 226 233 227 229 233 218 191 207 154 153 144 167 158 128 114 99 79 70 74 58 65 59
142 123 103 90 86 81 83 85 81 71 70 70 97 149 181 211 224 218 233 257 235 225 229 216 163 156 176 137 141 103 80 84 77 66 69 63 59 61
102 90 88 87 86 99 112 126 107 82 77 87 103 131 151 181 200 211 253 262 213 174 210 162 160 143 133 125 130 80 64 61 69 66 67 63 59 59
95 78 70 63 64 72 115 154 158 156 128 96 81 117 137 155 180 195 189 221 237 183 230 170 150 125 133 133 100 69 54 51 54 64 66 64 64 57
81 67 60 44 52 94 124 148 147 137 141 123 97 103 123 129 126 137 154 190 182 158 160 142 126 122 126 112 96 59 45 55 54 58 63 67 57 50
92 85 82 76 65 60 96 117 136 140 127 144 151 165 169 152 132 149 165 178 174 150 102 135 116 137 114 95 79 95 51 64 60 54 45 56 49 42
129 115 93 100 67 27 38 63 110 123 130 133 133 137 142 128 135 120 116 140 146 114 107 127 125 104 81 85 105 122 92 69 52 43 35 41 36 71
130 109 105 78 74 47 32 84 93 116 125 139 120 112 110 105 101 108 119 102 94 88 72 106 82 99 98 61 78 105 120 96 91 94 64 61 64 83
111 112 89 68 92 88 71 78 73 127 130 127 122 110 109 94 82 86 91 87 76 50 51 78 54 55 74 78 53 82 85 76 71 76 96 106 84 57
92 82 86 76 80 89 62 57 77 115 115 122 115 113 97 79 74 68 75 79 85 78 90 87 72 55 57 74 90 77 109 55 64 72 82 79 75 79
64 71 85 86 86 90 81 89 121 110 105 106 106 97 89 82 69 64 66 68 66 61 71 69 65 62 66 71 77 74 83 82 79 84 82 74 76 76
77 98 109 115 110 112 114 113 118 115 105 104 97 91 84 83 78 73 69 74 71 68 55 62 65 65 62 80 58 68 71 74 72 81 87 73 58 56
72 85 88 101 110 123 117 114 116 103 102 96 94 90 86 88 86 93 77 67 68 69 75 73 70 72 89 47 63 76 69 73 71 67 69 71 58 43
100 99 99 107 114 120 122 120 115 112 106 103 98 94 96 92 89 103 88 84 72 73 77 89 84 110 143 98 82 34 76 82 78 79 89 84 79 67
117 108 105 114 125 124 123 111 103 105 106 99 99 100 112 109 107 119 122 100 101 120 105 79 77 115 124 84 87 81 44 70 84 84 94 77 50 5
129 113 115 120 125 123 117 106 98 98 106 109 105 113 119 128 114 117 129 117 121 127 109 126 131 76 89 88 83 86 80 40 58 91 98 90 91 72
136 108 107 109 115 113 110 109 101 94 96 105 102 112 120 136 115 101 111 150 146 150 155 93 98 111 110 102 107 100 103 95 55 35 48 67 114 83
115 113 112 107 111 106 105 100 98 96 92 86 88 93 109 125 114 109 105 114 143 145 140 140 114 121 114 114 97 109 95 99 104 101 103 37 25 29

GFSNE_con_3kmhel_120.txt.gz
Helicity
104 114 117 130 116 106 83 79 77 89 96 92 113 100 76 63 59 68 39 54 86 144 185 192 174 216 221 149 180 197 203 195 215 217 198 168 122 104
119 100 137 125 105 89 90 86 89 80 93 106 102 109 105 112 113 111 117 129 138 192 197 197 177 174 199 193 215 167 158 134 162 175 174 130 97 121
113 136 129 104 92 90 89 88 88 106 116 119 125 137 132 131 139 151 164 166 180 180 190 202 184 171 160 151 161 170 169 132 151 168 156 127 115 86
124 120 121 115 109 106 106 105 109 114 120 94 102 110 132 148 163 168 183 194 209 200 174 164 174 167 130 138 117 153 155 153 141 110 72 30 67 40
112 108 97 90 104 109 114 110 109 107 113 112 111 130 129 150 167 189 207 233 227 209 174 159 119 133 123 113 162 190 197 203 179 168 116 91 61 41
150 140 122 108 105 101 90 85 85 83 85 77 92 112 128 151 169 173 180 200 219 221 224 197 135 107 130 161 162 179 189 181 148 121 91 78 70 60
160 154 144 137 127 103 80 79 82 85 84 73 66 60 76 101 138 183 195 208 212 210 208 189 202 181 156 103 145 131 143 135 105 80 68 68 68 63
147 139 124 108 99 99 102 119 107 67 78 92 79 72 73 82 120 154 185 184 183 144 195 175 148 157 134 156 123 87 99 111 86 67 58 59 61 71
127 119 111 97 72 57 58 52 66 114 127 106 87 86 82 99 116 128 158 183 173 143 165 163 140 153 145 138 124 119 101 91 65 57 52 54 64 71
125 116 107 88 53 26 19 33 66 97 129 133 121 116 99 88 102 139 141 165 156 127 129 162 141 108 117 108 103 104 74 61 47 47 50 57 55 65
131 118 102 81 74 49 37 48 50 62 92 123 137 137 137 128 128 131 135 155 144 137 95 158 101 100 104 119 122 106 57 48 53 53 54 61 59 61
122 107 86 97 102 77 55 67 30 45 84 88 89 105 115 109 122 112 111 126 141 129 100 142 119 92 56 120 103 82 69 60 68 63 58 48 67 84
109 108 116 110 123 110 62 71 47 60 79 93 100 107 96 94 96 105 105 98 111 121 87 80 97 96 108 75 41 60 99 112 69 69 42 44 48 43
129 135 146 143 128 81 63 73 68 55 78 88 91 89 90 91 94 93 88 86 89 83 75 103 95 79 74 54 35 38 59 84 76 65 90 127 85 62
125 113 112 92 82 80 69 81 54 76 88 85 83 88 90 94 89 82 81 85 88 89 99 100 91 69 57 47 43 38 75 86 74 84 102 86 88 90
113 99 72 73 83 88 94 94 109 106 85 80 76 84 93 87 87 81 81 74 68 66 86 88 78 70 66 48 54 63 54 91 95 92 80 76 75 74
136 126 107 94 91 111 110 108 118 105 95 80 89 91 88 90 89 85 86 82 71 71 66 67 70 62 57 75 63 57 70 86 91 90 93 79 70 63
139 126 95 77 86 106 121 123 123 100 104 93 92 96 98 92 89 91 85 83 80 80 76 67 65 66 74 59 57 97 100 63 88 85 78 82 68 62
153 126 111 108 96 107 123 130 115 118 116 119 109 111 110 104 101 98 89 83 85 86 89 82 72 82 100 102 81 15 112 73 86 81 79 83 89 75
149 136 121 121 124 113 115 122 112 112 112 112 113 115 120 114 108 103 97 91 91 94 102 89 89 119 101 97 109 144 37 68 75 91 87 73 73 65
131 129 139 142 120 124 121 120 116 115 113 112 112 115 116 120 104 101 98 81 88 107 116 129 139 87 115 123 111 151 104 20 45 83 94 95 117 108
134 131 138 129 128 124 125 122 119 116 114 112 108 114 117 112 101 97 98 96 90 107 133 151 156 122 125 149 144 152 148 82 34 21 41 84 132 131
113 111 114 118 125 127 125 126 120 115 111 105 102 100 93 97 89 95 96 96 96 101 105 138 146 125 119 102 77 96 112 108 99 99 101 34 20 19